GFSCGP_925_spd_000.txt.gz
Wind_Speed
10 5 8 12 14 14 2 9 10 7 12 10 14 14 15 15 17 15 16 16 15 15 18 23 20 16 13 13 12 11 9 6 3 2 2 3 6 8 8 9 8 11 12 14
6 12 14 10 6 12 9 9 10 9 6 5 9 14 15 16 21 22 19 17 16 14 14 20 22 18 18 17 16 12 10 8 5 3 2 3 6 9 9 8 10 10 11 15
12 3 11 6 4 6 9 11 9 8 3 6 8 11 20 16 16 17 20 18 16 16 15 14 20 22 19 19 18 14 11 9 7 4 3 3 6 7 9 9 11 10 14 14
11 14 7 7 10 11 12 6 9 4 3 4 7 6 12 12 17 19 18 19 17 14 13 14 21 22 24 22 17 17 13 11 9 7 5 3 6 8 9 11 12 13 15 16
3 7 7 8 11 9 7 2 2 5 6 8 10 5 5 8 7 14 16 16 17 15 11 14 17 24 25 23 21 17 14 13 11 8 5 6 7 8 10 11 13 15 15 14
12 3 6 11 2 3 9 3 2 3 3 7 12 12 8 10 12 7 9 12 13 14 12 11 21 23 25 24 23 20 18 14 12 8 8 9 9 10 10 12 15 14 15 17
13 17 4 5 4 1 4 4 3 4 4 7 5 12 15 6 4 3 7 8 10 11 11 10 12 18 23 25 24 21 17 16 12 12 11 9 11 12 12 13 14 14 17 18
10 9 17 15 14 9 12 10 6 6 7 10 4 6 5 7 8 5 9 8 10 10 10 10 12 19 23 26 24 23 20 21 17 14 11 11 11 12 13 13 14 17 18 20
10 14 8 12 13 13 8 10 12 10 15 8 7 11 10 7 8 8 9 9 10 11 11 13 14 21 23 26 26 25 24 21 19 16 14 12 10 11 13 14 16 19 19 22
8 17 8 8 9 11 10 2 4 5 5 8 8 10 6 6 12 11 10 10 9 10 12 13 13 21 23 25 26 27 24 23 21 18 15 12 10 12 15 17 18 18 23 25
19 12 2 7 12 15 6 7 8 4 8 4 10 7 6 6 4 14 11 10 10 10 13 13 12 20 24 23 24 24 24 23 19 17 16 11 11 14 16 17 20 22 23 24
19 8 15 19 10 20 18 14 21 8 8 9 15 17 7 3 8 9 11 11 10 9 9 10 11 19 22 24 23 24 22 20 20 18 14 12 13 14 16 19 20 22 23 24
4 7 14 18 6 3 11 19 18 20 11 21 16 13 4 5 8 9 10 10 11 11 10 9 9 11 18 22 24 22 22 21 20 17 14 13 14 14 16 19 21 22 23 26
5 10 14 18 21 8 9 16 21 21 16 25 21 25 12 7 8 9 8 9 11 12 14 11 9 9 18 22 24 24 23 23 21 17 15 15 14 15 18 20 21 23 23 25
6 19 22 25 24 20 19 19 26 26 31 21 24 26 22 15 10 12 16 11 10 13 14 13 12 10 15 21 24 25 24 23 18 15 14 15 15 16 18 20 22 24 24 24
19 7 22 25 27 28 29 28 20 28 29 26 24 31 19 8 7 5 12 14 15 14 16 16 13 12 12 19 23 23 22 20 16 15 15 16 15 15 18 21 23 22 24 23
13 7 13 20 26 26 27 30 28 21 20 21 23 35 7 14 12 15 10 8 8 10 11 14 15 13 17 21 25 24 22 19 17 17 15 11 14 15 18 19 19 21 22 25
18 21 8 13 21 33 19 22 23 21 25 23 22 25 17 17 10 9 6 8 8 8 8 9 10 14 21 23 21 20 20 18 15 12 11 12 13 15 16 16 19 22 24 24
21 16 8 9 15 19 18 22 16 13 15 17 23 26 24 18 7 9 8 8 8 7 7 8 19 21 23 22 21 19 16 13 11 10 12 13 13 12 14 17 21 23 24 25
12 11 8 12 6 10 19 15 7 4 15 9 11 22 20 10 12 10 10 9 8 7 12 13 22 23 24 21 20 18 14 12 11 12 14 13 10 13 15 19 22 23 23 24
8 3 10 10 6 10 11 16 6 13 9 4 6 18 13 10 10 5 9 9 8 10 14 21 23 19 23 23 20 18 16 15 14 15 11 10 11 13 16 21 21 22 21 23
14 6 5 4 3 13 17 16 6 11 21 14 11 8 3 8 8 8 9 10 11 12 13 20 18 20 21 23 20 16 16 14 13 12 11 12 12 16 17 20 22 20 23 21
7 5 5 4 4 6 14 7 12 19 24 17 11 10 5 7 5 7 7 9 9 13 14 20 20 19 19 19 19 16 14 12 10 9 10 13 15 16 18 20 21 21 18 18
10 11 7 4 15 18 16 18 12 7 15 19 14 10 6 4 5 7 7 7 8 9 12 18 19 15 16 18 17 15 12 9 9 10 12 13 14 17 19 18 18 20 19 10
13 13 21 22 25 14 15 14 20 15 17 14 12 8 3 3 4 5 6 7 7 9 16 19 16 15 17 17 14 13 9 7 8 9 12 14 15 16 16 17 18 20 13 9
14 19 13 17 13 15 17 10 14 10 12 10 9 8 6 8 7 6 6 7 8 10 17 17 17 16 14 13 11 8 8 8 8 10 12 13 15 16 15 17 20 19 14 20

GFSCGP_925_spd_003.txt.gz
Wind_Speed
5 3 8 11 9 7 3 4 6 6 6 9 14 15 14 12 10 13 14 15 19 19 21 29 30 26 22 22 20 17 16 14 13 11 8 5 3 2 4 3 4 8 7 9
2 8 11 10 10 12 12 9 7 7 3 9 8 18 15 11 17 21 22 18 19 14 13 22 31 31 27 25 22 20 19 16 13 11 8 5 4 3 3 5 5 7 7 10
8 8 9 11 9 8 12 8 4 6 2 4 5 8 9 13 14 16 20 19 20 21 18 18 24 31 32 28 25 22 21 19 15 11 9 7 5 5 5 5 7 6 7 10
9 15 13 6 7 7 8 4 5 7 2 5 5 11 6 10 12 11 19 18 19 18 16 17 23 27 34 32 26 25 21 21 17 14 12 10 7 6 5 7 7 7 8 9
9 5 7 8 10 7 7 4 3 3 3 2 3 3 5 7 8 13 16 20 19 19 19 19 23 32 35 33 30 27 26 21 19 16 15 12 9 8 8 9 9 9 9 8
8 4 5 8 2 3 7 4 3 4 3 5 7 7 20 8 15 8 5 13 19 18 17 15 27 29 31 34 32 27 27 23 22 21 17 13 12 12 11 11 11 11 8 9
4 11 4 5 4 2 3 7 2 3 1 10 11 9 23 7 9 9 8 10 15 17 15 14 18 23 27 33 36 32 30 25 24 23 18 14 14 13 15 15 14 10 10 13
5 7 14 9 16 10 11 11 7 8 6 10 6 8 9 15 21 8 10 9 10 14 15 16 18 25 28 33 38 35 33 30 25 22 17 18 15 15 16 16 14 13 13 15
5 8 6 8 8 17 7 11 12 3 3 2 6 8 9 4 4 7 9 9 12 13 14 15 15 25 28 32 36 38 36 32 28 24 20 19 16 15 14 12 12 14 15 15
7 16 12 7 2 5 8 7 3 3 6 7 8 7 8 11 19 11 8 11 11 10 10 12 14 21 27 32 35 38 36 33 30 27 26 21 18 15 14 13 13 14 13 18
16 7 15 2 6 16 5 9 5 5 6 7 9 7 10 17 11 14 17 11 12 13 13 13 11 21 27 31 34 37 36 35 32 30 27 22 19 16 14 14 15 15 18 18
8 11 19 28 9 11 16 12 23 8 5 7 15 17 4 9 10 11 13 14 11 12 12 12 12 19 24 29 31 35 36 36 34 32 27 24 20 15 14 14 14 14 17 19
8 6 11 14 3 2 7 13 7 19 1 17 17 17 11 16 14 10 12 12 12 13 12 11 11 14 22 25 28 32 35 37 33 30 26 22 18 15 15 13 14 16 18 21
10 6 15 17 17 6 7 12 19 15 12 25 22 28 10 6 7 7 9 11 13 15 16 13 12 14 21 25 28 32 34 34 32 28 25 22 19 16 14 15 16 17 18 23
5 7 11 21 23 19 21 20 26 26 30 21 29 26 25 18 13 12 9 10 9 11 13 15 15 14 19 23 27 31 35 34 31 28 26 23 19 17 16 15 16 18 22 24
2 6 16 24 23 25 26 28 25 27 30 31 32 32 7 12 9 8 12 13 14 15 16 17 16 14 16 25 27 30 33 35 31 30 26 21 17 15 16 15 16 20 20 17
6 4 4 11 20 18 20 18 25 25 23 22 23 34 12 20 18 19 11 12 15 14 17 17 18 17 21 26 30 30 34 34 32 29 24 20 17 16 13 13 16 13 13 18
16 14 7 8 11 13 14 16 21 23 28 26 25 25 15 19 17 11 11 11 16 17 16 17 14 15 23 28 30 34 36 34 31 26 22 18 15 12 11 12 9 11 16 20
17 12 5 6 11 17 20 13 16 11 19 25 25 20 10 13 5 12 9 9 13 12 12 13 22 23 27 31 33 34 32 32 28 23 20 15 11 11 10 8 11 16 19 21
0 10 10 11 9 5 12 12 6 13 15 20 26 24 23 16 5 19 12 9 9 10 8 13 23 25 28 30 33 32 29 28 23 19 14 11 13 12 9 11 14 17 18 19
3 4 13 14 12 7 16 15 8 4 7 18 22 27 28 19 15 16 9 7 7 10 12 22 25 24 28 33 34 28 27 24 19 15 13 14 13 10 10 13 16 18 18 17
9 5 5 4 6 9 9 7 8 4 9 15 22 26 28 25 21 9 7 13 13 14 16 22 20 22 30 34 32 26 24 21 17 15 15 14 12 11 12 15 17 18 18 18
5 8 5 7 7 16 21 22 6 4 13 17 12 18 23 21 15 13 5 7 10 12 10 21 23 22 27 31 28 25 22 20 19 16 15 13 11 12 13 14 17 20 17 15
7 6 8 4 18 14 13 20 20 6 14 15 17 16 16 17 12 7 8 5 6 9 9 16 24 18 18 28 27 25 22 20 17 15 12 10 10 10 12 15 16 15 17 16
8 3 7 8 21 14 14 11 11 11 15 17 11 13 6 11 15 6 3 2 2 7 11 17 18 18 20 26 24 22 20 17 14 12 10 8 9 10 11 12 15 15 18 16
9 16 5 12 20 11 19 21 21 18 20 20 15 13 10 10 14 12 6 7 6 7 15 15 17 19 22 23 22 19 18 17 14 12 10 9 9 9 9 11 18 20 12 10

GFSCGP_925_spd_006.txt.gz
Wind_Speed
3 3 9 13 10 3 4 5 5 4 6 9 15 20 19 12 9 13 13 15 17 21 22 24 34 31 30 34 32 29 27 25 23 22 17 12 11 9 7 5 5 3 3 1
0 9 15 6 7 8 8 8 9 8 8 10 9 20 18 7 10 16 21 17 20 17 13 19 30 35 37 36 34 31 29 28 26 22 18 10 12 9 7 8 7 6 5 4
6 7 4 9 7 8 11 14 6 9 3 4 4 11 8 9 16 19 20 18 19 21 22 17 24 32 38 40 38 34 32 30 27 22 17 13 10 8 9 9 9 7 6 5
7 13 15 6 8 14 16 8 14 10 4 7 6 14 8 7 15 10 20 20 22 22 21 18 22 28 35 40 41 37 33 32 29 24 20 18 15 12 11 10 9 7 6 6
8 4 8 15 18 8 9 8 9 6 5 1 5 4 3 4 7 15 13 21 23 22 20 22 23 35 39 39 44 39 35 35 31 27 22 20 17 13 10 10 9 8 7 8
11 4 3 5 6 9 4 3 6 4 3 5 10 8 24 9 15 14 15 11 16 17 20 19 27 29 32 36 41 39 37 37 33 29 25 22 19 15 14 13 12 10 10 9
5 10 6 6 6 2 4 6 3 4 2 11 11 8 22 8 8 11 15 16 11 14 15 15 18 21 29 34 39 41 40 40 36 33 29 25 20 17 17 14 14 12 12 11
4 12 9 9 20 13 9 9 7 8 7 12 6 10 13 12 20 20 15 12 6 9 14 17 21 25 31 34 36 39 40 40 38 35 32 27 21 20 18 17 17 16 16 13
5 9 6 4 14 14 9 9 9 7 1 2 6 9 11 8 10 9 11 9 11 11 15 18 16 25 29 33 38 41 40 40 40 37 33 29 24 22 19 18 17 16 15 14
4 17 12 11 2 3 10 6 2 0 7 11 10 6 12 5 15 14 10 12 12 9 9 11 14 22 29 32 35 37 41 43 42 38 35 30 26 23 20 18 15 15 14 13
4 7 14 3 6 8 2 9 5 5 7 13 16 12 9 17 16 12 12 13 14 12 14 13 13 21 26 28 32 36 38 38 40 39 36 30 28 24 22 19 15 15 14 13
4 5 9 14 12 13 19 17 21 13 16 5 15 23 2 7 8 9 15 10 7 8 8 9 10 16 22 27 30 34 35 37 41 41 36 33 30 26 24 20 16 15 14 13
8 4 9 14 9 5 5 8 14 11 15 21 19 23 6 11 14 9 9 9 9 10 8 7 8 13 20 26 29 32 35 37 40 39 37 35 33 28 25 20 15 14 13 14
3 5 10 10 5 7 10 23 22 12 12 19 22 31 26 12 8 10 10 12 10 12 15 13 9 13 18 24 28 29 31 36 39 39 38 38 34 30 25 19 15 14 13 15
3 9 13 18 23 22 21 22 24 23 17 11 26 30 27 21 19 21 16 7 7 10 11 13 14 13 13 20 24 27 31 36 38 37 38 38 33 29 23 18 16 14 14 16
6 15 14 18 21 19 20 17 21 24 23 23 23 29 22 26 15 14 16 10 12 13 15 16 16 14 15 23 27 28 30 34 37 36 37 37 33 27 22 18 16 14 15 15
14 12 6 19 20 19 15 15 18 15 15 12 17 14 21 20 26 22 15 15 20 19 16 15 17 18 17 27 30 29 32 34 35 35 37 35 31 26 21 18 16 15 12 9
16 18 9 12 14 15 11 12 17 19 18 8 9 12 14 19 26 31 21 21 20 15 16 16 16 14 23 26 28 28 33 35 34 32 35 34 30 24 20 17 15 12 9 11
6 10 5 4 5 13 14 11 4 1 7 5 6 12 19 22 28 26 16 25 24 14 17 18 25 25 23 30 32 32 30 32 31 31 33 34 28 23 19 17 14 12 10 12
4 9 6 5 3 10 24 7 6 3 7 9 9 15 18 18 12 16 28 33 35 27 18 12 20 20 25 27 33 30 27 28 28 32 36 31 26 22 18 16 14 11 11 13
3 2 5 9 9 7 6 8 8 7 9 13 7 9 9 10 9 22 27 31 30 26 13 16 21 21 25 31 33 26 26 26 31 35 31 27 21 18 17 15 12 11 13 15
3 7 9 5 5 8 5 16 5 8 12 13 11 10 10 15 16 20 24 29 22 8 10 15 13 16 23 30 31 24 23 29 33 32 26 21 18 17 16 14 12 12 14 16
7 8 7 7 8 9 10 16 12 10 17 17 12 14 6 13 14 16 24 27 13 11 7 14 18 19 20 26 30 24 27 34 31 25 21 18 18 18 15 13 12 13 15 15
7 8 7 7 19 20 17 18 16 16 14 11 14 14 9 11 12 12 19 22 17 8 5 14 17 13 15 25 28 32 33 31 27 23 20 19 18 15 12 11 11 13 12 13
7 5 13 16 22 18 21 18 10 11 14 18 16 13 16 14 10 7 10 21 18 6 6 7 14 14 15 24 27 30 29 27 24 21 19 17 14 11 10 9 10 10 11 13
11 14 7 14 18 15 21 17 20 16 18 19 20 19 12 12 13 8 6 13 14 7 5 5 12 16 18 24 26 25 25 25 24 20 17 15 12 10 8 8 9 11 12 6

GFSCGP_925_spd_009.txt.gz
Wind_Speed
2 2 11 14 11 3 4 4 6 5 6 8 10 18 22 13 8 14 13 14 15 18 23 23 29 39 38 39 38 38 35 32 30 29 26 22 21 18 15 13 10 9 6 5
3 8 9 3 6 6 5 6 9 8 8 8 10 20 18 15 9 18 18 17 20 20 18 16 30 34 39 42 42 41 39 37 35 33 30 23 23 19 16 14 12 11 8 8
7 8 2 6 7 6 12 14 8 13 7 5 4 20 9 11 16 13 17 23 18 23 22 20 21 31 37 42 46 48 45 41 38 34 30 21 17 12 17 16 14 14 10 9
6 12 16 6 6 12 15 8 13 12 3 9 4 15 7 6 14 13 18 17 19 20 21 18 19 28 35 41 46 49 47 44 40 37 34 30 25 19 19 18 15 13 11 11
9 4 5 7 15 6 7 7 9 7 6 2 5 4 2 3 7 11 13 19 19 20 18 19 21 35 39 38 45 50 48 45 42 41 37 32 26 20 14 16 15 14 13 11
14 4 5 8 4 9 3 3 1 3 4 7 10 8 28 11 13 11 12 13 14 18 14 19 27 25 28 32 37 43 47 47 45 43 38 34 29 23 19 19 17 16 14 13
5 6 6 10 13 3 4 5 4 4 2 15 9 9 22 4 6 9 15 17 16 9 10 13 15 16 25 35 37 39 44 41 46 43 40 35 30 26 23 22 19 17 16 15
6 12 7 3 13 11 11 13 9 6 7 15 5 10 13 10 10 9 13 16 15 14 8 11 16 17 27 32 35 38 39 41 45 45 42 37 32 28 24 22 19 18 17 16
6 7 7 3 5 7 5 7 15 11 21 5 12 16 13 11 9 11 12 11 16 19 8 11 9 18 22 29 36 40 42 38 44 46 44 40 35 31 27 23 19 19 18 17
6 16 7 6 3 3 6 4 3 2 9 21 14 6 12 6 7 11 11 13 12 11 7 9 11 16 23 29 33 36 38 42 46 46 46 43 38 33 27 23 21 20 18 17
5 5 11 5 3 13 10 6 4 4 7 17 19 14 7 14 16 17 12 10 11 11 8 7 7 13 19 23 29 33 36 37 39 42 43 41 39 34 28 24 22 20 18 17
6 7 17 24 20 16 16 9 3 4 15 6 14 24 3 4 8 7 10 11 11 8 9 8 9 12 18 23 27 34 35 37 39 43 42 42 40 35 31 27 25 22 19 17
3 2 9 17 7 7 6 11 15 15 7 14 14 15 12 21 27 24 23 19 13 9 7 7 8 12 14 23 27 30 33 35 37 40 41 41 40 36 33 29 27 23 19 16
13 6 13 16 19 15 25 26 22 14 8 14 16 22 32 30 24 18 25 28 23 12 8 7 6 11 14 22 26 28 29 33 35 38 39 40 41 37 35 31 28 23 19 16
4 14 14 20 23 23 26 26 21 24 20 15 27 25 26 22 18 10 15 19 24 26 21 9 11 12 12 17 21 24 27 32 36 36 37 40 42 38 35 32 28 22 18 15
3 16 20 24 24 24 26 26 27 24 29 25 27 27 22 24 11 14 14 16 20 20 22 22 14 11 14 20 25 27 28 33 37 35 35 38 39 38 37 33 28 22 18 15
12 8 8 20 24 20 15 25 24 23 27 20 17 7 9 13 19 16 16 17 13 17 21 22 24 15 15 26 31 32 33 32 35 34 34 38 38 38 36 33 27 22 18 14
12 15 5 9 15 14 9 15 13 16 17 13 6 5 10 15 16 17 16 10 16 18 20 23 19 18 19 21 28 28 32 34 34 32 33 36 37 37 36 31 26 20 17 15
11 3 5 5 10 18 17 6 9 13 12 12 14 20 14 13 11 14 9 13 15 16 17 20 30 30 28 26 29 29 31 32 31 31 33 36 38 37 35 29 24 20 17 15
2 5 3 10 11 10 13 13 9 8 8 10 15 17 21 11 11 14 17 17 22 16 22 23 37 35 29 26 31 30 27 29 29 32 35 38 39 37 34 28 23 20 17 13
4 4 8 7 5 10 12 4 1 5 8 14 19 17 19 14 12 19 21 18 19 19 23 38 32 24 26 26 31 25 27 28 30 33 36 38 37 35 30 25 22 19 14 11
6 3 8 4 4 10 0 11 8 9 12 18 16 17 14 15 18 18 18 15 18 20 23 36 19 13 17 27 29 23 23 27 34 35 36 35 34 30 26 23 20 15 12 12
7 8 7 7 9 12 22 19 20 17 14 16 18 15 17 20 19 19 19 12 13 17 17 26 11 3 13 22 26 23 24 33 33 33 34 34 30 25 23 22 18 14 12 11
5 7 6 10 17 17 18 19 20 17 15 13 16 19 18 18 17 23 20 11 11 14 16 20 12 5 5 16 19 27 31 33 33 32 33 29 25 23 21 18 14 12 11 9
11 6 13 16 19 20 17 10 10 18 16 18 18 18 17 18 17 18 15 11 8 10 18 14 10 7 6 16 21 26 31 34 30 30 28 25 24 22 18 15 13 12 9 8
7 13 5 13 17 15 21 19 18 19 20 19 18 18 18 16 16 18 16 10 4 6 15 17 17 5 6 12 19 28 32 32 29 23 23 23 21 17 15 13 10 8 7 7

GFSCGP_925_spd_015.txt.gz
Wind_Speed
3 1 6 9 6 3 2 4 10 16 12 9 18 22 20 21 10 15 17 18 17 20 21 23 26 31 31 33 32 38 42 45 43 39 35 30 33 32 30 27 24 21 19 18
3 8 6 3 4 6 7 9 14 12 11 7 12 26 20 18 25 20 20 20 21 20 16 17 24 27 33 38 40 39 43 46 48 48 41 27 30 32 31 29 26 24 22 20
5 1 6 4 3 5 4 7 8 13 12 8 11 19 10 8 15 16 16 20 20 19 20 19 17 26 28 32 39 42 48 52 54 48 40 32 26 23 28 30 30 29 25 23
5 3 2 3 7 7 6 12 15 11 5 6 5 16 7 11 16 5 12 16 17 16 17 16 15 22 30 40 44 43 46 46 50 51 46 43 36 26 31 33 36 31 28 25
6 2 3 4 6 5 7 1 4 3 5 6 6 6 19 5 9 12 13 12 11 15 15 16 15 24 31 33 36 43 41 42 46 52 49 47 35 31 31 34 34 31 30 27
7 3 4 5 2 6 2 2 2 2 2 8 10 10 27 6 3 6 7 7 9 10 14 13 19 19 24 25 31 35 39 45 47 53 51 51 42 35 31 31 31 33 30 29
5 4 3 2 1 4 2 3 4 3 3 7 3 9 21 7 18 7 10 19 21 21 20 18 17 17 25 22 29 33 37 40 44 47 47 47 43 41 41 36 35 33 30 31
4 5 2 2 3 5 6 4 2 7 8 14 6 12 12 3 7 13 13 15 17 19 18 20 19 22 25 25 26 29 32 35 38 39 43 43 43 42 38 40 37 36 37 35
6 5 6 19 6 5 3 1 4 8 18 14 13 18 14 17 9 17 19 20 21 18 18 18 21 29 31 23 21 26 28 31 37 41 40 40 40 40 39 41 37 36 34 32
2 12 9 3 6 6 5 5 6 3 16 22 18 22 16 16 17 22 27 27 24 20 20 19 20 28 34 25 15 18 23 29 32 37 40 40 40 40 41 43 38 35 33 31
3 4 8 13 4 9 11 10 10 10 10 15 20 11 2 19 18 24 32 27 22 19 19 19 18 27 29 26 15 15 20 24 26 30 32 34 36 36 37 42 38 35 34 33
5 5 11 20 19 18 11 4 7 5 12 16 13 19 22 19 30 33 29 25 26 22 21 19 17 20 28 27 20 14 18 22 25 28 30 32 34 39 39 39 39 37 36 34
4 3 10 7 2 2 9 17 17 15 9 17 15 14 23 32 27 22 23 26 22 24 27 19 17 15 23 28 27 20 18 22 23 25 29 29 31 36 37 38 39 38 36 34
10 5 11 12 17 15 18 20 19 18 12 17 19 29 27 30 28 19 18 19 20 18 19 20 20 19 24 26 25 25 21 21 22 24 28 31 33 35 36 40 41 39 37 35
2 6 14 16 18 20 22 22 25 21 21 18 25 24 26 20 21 22 16 18 18 19 19 19 20 18 19 23 26 22 22 20 22 24 27 30 31 32 35 39 41 39 36 34
3 14 14 19 19 20 19 23 22 20 20 17 18 19 9 13 20 19 21 19 20 21 19 19 21 24 19 23 25 27 24 21 19 24 28 28 29 33 35 37 39 40 38 34
9 8 8 13 15 12 11 15 10 20 20 17 15 18 9 19 23 21 20 20 19 19 21 22 23 21 24 25 26 29 30 24 20 24 27 29 31 33 35 37 38 39 40 35
12 9 5 6 4 6 7 16 19 16 16 15 17 7 14 17 25 20 17 18 15 20 23 23 22 27 28 28 30 33 31 27 22 26 28 31 33 34 34 37 37 36 36 37
15 4 3 3 4 13 16 6 8 14 23 13 6 19 23 22 21 20 10 14 21 23 21 24 33 32 30 29 31 31 30 29 25 29 31 33 35 35 35 37 37 36 35 33
4 5 3 4 9 11 19 15 7 5 17 2 20 23 22 20 14 19 19 20 22 24 28 28 33 32 24 28 31 29 25 29 29 30 31 33 35 36 36 36 36 35 35 34
3 3 7 10 8 10 8 6 3 8 10 21 22 20 21 17 13 26 20 22 25 25 30 33 32 27 27 25 34 30 27 27 31 30 31 31 33 34 35 34 34 36 32 31
6 4 3 3 4 9 3 7 7 12 23 19 20 19 19 21 22 22 21 19 20 20 26 30 26 24 28 25 29 30 28 31 28 27 29 30 32 32 33 37 33 34 32 29
5 7 5 7 8 7 14 19 17 13 17 20 18 21 18 21 22 21 20 20 18 20 24 28 26 23 26 25 25 29 30 26 18 22 25 29 30 30 32 34 33 30 30 26
4 4 6 6 20 16 16 18 19 13 16 19 19 18 19 18 21 21 19 18 17 22 22 28 27 21 19 23 27 26 25 15 18 21 23 26 29 27 29 29 32 30 26 22
12 10 13 17 19 17 10 9 16 18 17 17 19 17 18 17 21 20 19 17 17 21 26 26 25 18 17 23 26 26 13 8 18 22 24 25 30 27 27 27 29 28 26 31
6 9 5 7 14 12 16 13 17 18 18 16 19 23 18 14 18 19 18 17 21 21 25 25 23 19 9 21 24 28 10 6 16 19 22 24 28 27 27 27 20 21 25 20

GFSCGP_925_spd_018.txt.gz
Wind_Speed
1 5 8 10 8 11 12 13 18 20 21 21 21 23 24 25 23 23 23 23 23 24 23 26 21 23 27 31 34 36 37 39 36 34 31 29 29 25 23 21 20 20 18 18
5 8 7 2 4 8 11 15 18 17 13 14 19 29 28 27 26 23 20 19 21 19 17 18 19 19 24 30 33 34 38 38 40 38 37 32 30 27 25 22 22 23 21 20
8 3 1 4 6 8 11 13 16 19 20 16 18 23 10 9 8 10 11 14 17 16 16 16 18 17 16 23 30 35 40 41 43 41 34 28 24 21 25 26 25 26 24 22
7 2 4 5 10 9 13 5 11 14 11 10 12 16 16 6 2 3 8 13 17 19 18 16 19 23 20 20 24 30 35 39 41 40 36 39 36 31 31 31 29 27 27 25
3 7 8 11 8 3 11 7 11 14 16 16 12 8 3 11 9 11 17 16 16 16 18 21 19 26 25 24 23 25 30 36 39 42 42 42 39 35 28 28 29 28 27 26
14 8 6 6 8 7 12 10 14 9 9 7 8 14 12 7 3 15 14 17 18 19 19 20 29 31 28 28 26 22 27 32 37 41 44 44 44 38 31 31 30 30 28 27
11 4 0 5 3 1 10 11 7 5 5 9 3 9 18 20 12 15 16 20 26 26 23 22 22 27 33 34 32 28 23 31 33 40 44 44 43 42 38 35 33 32 30 29
6 1 4 5 10 7 10 5 6 9 11 18 18 14 10 12 8 14 17 18 23 27 23 24 24 32 33 34 31 32 26 26 29 35 40 41 40 38 38 36 33 33 33 32
7 3 10 15 7 4 4 6 10 14 21 18 15 21 23 17 13 28 28 28 30 27 25 27 27 32 32 32 33 31 28 23 24 29 34 37 39 40 39 36 34 34 32 29
3 10 5 5 10 7 8 11 9 7 8 13 14 23 21 20 28 29 32 34 32 30 30 25 21 29 32 29 30 30 27 23 21 23 29 31 35 38 37 35 35 33 31 29
8 5 5 13 6 15 14 7 5 6 9 12 18 14 19 29 32 32 30 28 28 29 27 24 23 28 28 29 30 30 26 23 20 20 23 28 31 34 36 35 34 32 31 31
5 6 12 20 16 5 3 8 9 9 19 18 19 26 26 26 28 27 27 23 25 26 24 23 23 26 27 28 31 30 27 25 21 19 20 25 28 31 34 35 33 32 32 30
7 2 8 3 6 9 4 17 16 18 14 22 19 18 22 28 29 25 26 26 22 24 27 24 20 18 24 27 28 29 28 25 23 20 20 23 26 29 33 34 33 33 32 30
8 9 13 12 17 17 23 21 21 19 14 22 19 27 25 27 26 25 24 23 23 24 25 24 20 17 27 26 25 26 30 28 24 20 20 22 24 27 30 32 33 34 33 32
4 8 13 17 22 23 25 22 24 23 23 21 25 26 24 24 23 23 21 25 26 24 24 21 24 23 28 26 24 22 28 31 27 20 19 21 22 25 28 31 34 35 34 33
7 10 13 19 23 24 23 22 25 24 21 25 24 25 22 21 20 22 23 22 25 24 22 23 27 27 27 31 25 23 25 27 29 24 21 21 22 24 28 31 34 35 35 34
13 7 8 16 16 17 14 16 13 16 21 21 19 22 21 17 22 26 22 23 22 21 25 27 25 25 30 33 33 26 27 29 31 27 24 21 22 25 28 30 34 34 36 35
11 12 7 9 13 13 8 19 23 19 22 18 19 18 14 19 23 28 23 19 20 24 26 25 23 30 34 33 32 29 27 29 28 28 26 20 24 25 28 31 34 34 35 35
14 10 5 6 13 19 18 14 13 15 25 15 18 12 22 23 24 30 17 21 24 25 25 30 33 33 35 34 32 30 32 32 32 32 30 21 25 24 30 32 34 35 33 32
7 12 10 12 16 16 18 21 13 5 16 5 16 23 24 23 14 20 26 26 25 29 31 32 35 35 35 34 33 28 30 31 30 28 32 26 23 30 33 32 33 34 33 32
7 7 13 13 16 13 15 8 4 11 14 24 22 22 20 18 16 26 26 27 30 31 34 36 34 31 34 36 34 28 31 34 34 34 33 25 29 33 35 30 32 34 34 32
8 7 11 11 9 11 5 6 13 18 25 22 23 21 21 23 24 26 24 24 24 24 33 36 32 30 34 36 31 23 29 38 36 33 30 27 28 30 26 29 31 34 34 32
6 9 10 9 11 21 25 24 21 20 19 19 22 21 20 23 25 26 24 24 23 28 31 34 31 32 33 33 18 24 33 32 36 33 28 17 21 25 25 30 32 33 32 31
15 13 12 15 18 24 21 25 20 13 16 17 20 22 23 24 26 27 23 22 21 27 29 32 32 30 32 29 18 21 32 29 26 26 14 15 25 24 26 29 31 29 30 28
16 18 18 22 24 21 16 13 18 19 19 20 21 22 23 24 26 24 22 23 21 28 31 31 29 28 31 28 18 21 28 24 20 16 12 15 14 22 25 27 28 28 29 32
13 12 10 14 19 13 12 14 18 20 22 23 24 27 26 24 24 25 21 24 27 28 31 29 30 30 32 31 19 16 23 22 14 9 10 12 19 24 22 25 25 24 30 28

GFSCGP_925_spd_021.txt.gz
Wind_Speed
2 6 9 12 12 14 14 15 19 19 18 18 18 20 25 24 21 21 19 18 15 14 13 15 18 19 18 16 23 26 29 31 33 30 30 31 31 29 28 27 26 25 24 24
7 10 7 6 6 8 12 16 19 18 13 19 20 25 28 26 19 8 8 7 9 13 15 25 28 30 33 12 16 23 27 29 32 31 32 32 30 29 28 27 28 28 28 26
9 11 2 6 8 12 14 16 18 18 20 21 19 17 9 12 11 8 20 22 22 19 19 19 22 27 25 26 27 22 23 27 30 29 31 29 28 26 26 30 30 32 30 28
9 4 3 9 13 12 15 6 12 17 15 10 17 10 13 7 10 19 18 19 19 20 19 18 21 24 25 25 25 24 26 25 28 31 31 32 30 28 34 33 32 31 32 29
2 7 11 12 10 8 12 10 15 17 17 18 16 8 3 9 10 14 15 17 18 20 21 19 21 26 27 27 28 27 25 26 26 31 34 35 35 31 27 27 29 30 32 31
13 10 5 9 12 8 11 13 19 20 11 8 12 11 6 5 10 13 12 14 16 21 24 22 28 31 28 29 26 26 27 27 25 29 30 36 37 36 29 28 29 31 32 33
12 1 5 7 11 5 7 15 7 6 6 7 6 9 12 9 17 15 15 18 22 24 23 23 25 29 29 28 31 28 27 27 29 25 30 32 39 37 36 32 31 30 32 33
6 3 2 9 7 8 15 8 6 8 9 16 22 11 8 7 16 13 19 20 22 22 24 26 27 29 30 30 30 29 29 28 29 28 26 31 33 37 37 36 33 33 33 36
6 4 4 12 6 7 6 7 9 11 19 17 11 15 17 6 22 28 30 27 25 23 23 24 28 31 31 31 31 30 32 28 26 28 26 26 32 33 33 36 35 34 33 31
4 9 8 2 7 10 8 6 6 6 7 11 12 20 17 17 28 30 30 30 28 26 28 25 25 31 33 29 30 29 33 31 25 25 25 23 27 31 31 33 37 33 31 32
8 7 4 10 11 12 13 13 8 9 9 9 16 13 13 29 22 28 27 26 25 21 23 24 27 34 31 32 29 31 32 32 28 23 25 23 23 27 29 32 37 32 32 32
4 6 9 17 16 9 8 9 1 4 11 15 16 25 23 21 28 24 25 24 22 22 22 24 29 34 32 28 29 30 30 31 28 27 25 25 21 22 26 30 33 32 31 31
7 2 7 5 5 5 4 8 9 16 15 23 17 17 23 26 24 25 25 23 21 22 24 24 24 27 28 32 35 31 31 29 29 27 27 26 22 21 24 28 30 33 32 32
6 9 12 10 15 17 21 22 21 20 13 21 19 29 26 25 25 24 22 23 23 22 22 23 21 21 30 34 33 32 30 28 31 30 25 26 23 22 21 24 28 31 32 32
4 9 13 16 18 20 23 23 23 24 24 23 26 28 26 24 22 22 23 22 23 24 25 22 21 22 31 31 32 30 30 27 28 28 29 25 26 22 22 23 26 29 32 33
6 9 14 18 19 20 24 23 25 24 25 26 26 27 24 22 22 22 21 23 26 24 23 22 25 25 29 31 30 27 30 28 25 25 25 27 26 25 23 23 25 28 29 32
11 6 8 10 10 19 18 12 12 18 22 21 24 25 22 21 21 21 22 25 26 24 22 25 25 23 30 31 32 28 30 29 24 24 25 26 24 24 24 24 25 26 28 30
11 11 9 13 18 7 2 14 23 21 19 20 24 21 21 16 18 27 23 23 22 25 25 24 22 30 32 33 32 32 30 30 27 25 24 25 25 21 24 22 24 24 26 30
14 12 8 5 12 21 21 15 21 23 22 23 21 15 22 23 22 28 19 20 23 24 23 27 33 35 37 33 32 30 29 32 27 26 24 25 27 24 25 23 24 25 26 29
8 11 10 15 18 15 15 26 17 15 16 11 13 21 25 23 15 16 24 25 26 32 30 30 34 37 36 34 33 30 28 31 27 27 32 32 31 26 26 25 26 26 26 28
8 9 13 13 17 15 19 12 10 11 13 25 27 25 24 19 16 25 25 26 33 33 34 35 33 32 34 35 32 31 30 26 28 34 31 33 33 28 28 25 28 26 26 28
7 8 11 12 14 17 12 19 24 21 22 23 23 22 20 20 22 22 23 23 24 25 32 35 30 31 34 34 33 31 31 28 30 34 36 35 32 26 25 28 25 27 27 27
8 8 11 12 14 23 25 24 23 19 21 20 19 19 19 22 23 23 23 24 24 29 31 32 30 32 34 33 32 32 33 31 31 34 36 34 29 27 26 27 27 26 28 27
14 17 15 18 22 23 25 23 21 18 21 19 18 20 21 22 25 25 25 23 21 28 28 31 30 29 31 32 33 33 34 29 31 34 33 33 22 17 19 23 24 26 27 27
16 18 16 20 22 21 21 20 22 23 21 20 19 22 23 24 23 25 24 24 22 29 29 29 27 28 32 33 33 32 33 25 24 31 29 29 14 13 19 19 24 24 27 29
12 16 12 14 21 18 21 20 22 21 23 22 23 27 27 25 26 24 23 25 28 27 30 29 31 30 34 33 34 31 32 18 20 24 22 18 10 12 16 19 21 17 26 28

GFSCGP_925_spd_024.txt.gz
Wind_Speed
3 3 6 9 7 8 8 11 13 13 13 12 9 16 20 19 12 9 7 16 19 19 20 33 36 41 41 45 42 41 40 18 19 28 29 26 28 30 29 31 30 31 34 33
5 7 5 6 5 5 8 13 14 12 10 13 11 18 22 23 6 20 20 20 19 20 20 26 31 35 36 36 39 41 39 39 37 17 31 31 32 31 31 31 31 33 35 37
5 9 3 4 6 11 11 12 10 13 15 14 10 7 2 15 22 21 20 17 19 19 19 17 24 30 32 32 35 37 38 37 36 36 19 29 27 28 29 32 36 37 37 37
8 5 2 7 10 10 9 9 11 12 11 4 10 6 9 10 17 17 12 11 14 16 15 16 23 28 32 29 27 29 31 33 35 39 32 21 29 26 30 35 38 37 37 36
5 8 6 7 8 10 6 9 13 15 13 11 10 4 6 17 14 12 11 14 13 13 15 18 24 26 26 30 26 27 30 26 29 33 38 32 26 30 31 32 35 35 37 37
12 9 4 2 9 8 9 11 17 17 8 5 9 10 4 4 13 10 11 12 14 11 11 12 19 23 24 28 25 24 28 28 29 30 29 36 32 27 28 29 31 33 36 38
11 1 6 7 9 2 9 11 4 2 2 5 14 6 4 16 15 16 13 14 16 15 10 12 13 21 23 26 30 25 24 27 31 30 28 30 36 33 30 34 32 31 31 34
6 2 4 5 3 6 12 5 4 5 4 8 19 4 6 17 17 13 14 11 9 10 7 9 12 20 25 27 29 30 26 26 29 33 29 27 32 34 31 33 33 33 34 34
6 2 6 8 4 4 8 4 4 5 9 10 6 6 19 15 17 16 19 15 12 12 8 9 13 18 20 25 26 31 27 27 29 33 33 28 31 34 32 30 36 34 35 37
4 7 8 6 3 6 5 3 2 3 5 5 4 7 4 23 21 24 21 16 17 15 15 17 24 27 28 32 27 24 23 27 30 32 30 29 33 35 36 32 33 36 34 34
5 3 2 12 3 8 5 6 7 5 6 4 5 6 7 16 18 23 22 16 13 8 9 11 16 20 25 31 28 23 29 30 26 27 27 27 32 35 36 32 28 34 35 33
5 4 5 8 9 7 4 7 8 1 5 4 3 17 19 13 21 18 18 14 9 9 9 11 16 21 22 22 28 29 30 32 30 20 23 28 30 31 35 31 28 26 32 34
7 2 5 4 4 4 2 3 3 8 4 15 11 12 15 22 22 20 19 9 10 12 13 14 18 18 15 22 27 30 30 29 29 28 26 23 25 26 30 31 29 29 29 32
2 4 6 5 10 14 15 13 14 14 10 16 17 26 21 22 25 20 11 11 11 12 15 17 14 14 19 23 25 29 27 27 29 32 31 21 20 21 29 34 28 32 29 31
3 6 9 11 14 16 18 19 18 17 18 18 24 25 24 18 19 15 14 13 14 18 21 18 12 14 24 24 22 25 29 30 29 32 28 27 24 18 25 31 30 31 32 26
2 4 9 12 16 16 18 18 19 19 20 21 20 22 18 14 16 16 13 14 15 18 16 19 18 21 25 25 23 26 30 30 32 32 32 30 28 18 17 28 33 23 36 31
5 3 5 4 7 17 14 4 6 13 16 13 16 18 15 14 16 17 17 18 18 14 20 16 18 22 25 29 30 29 32 34 28 32 33 35 26 22 20 22 25 28 33 29
7 6 3 7 12 4 4 14 14 17 18 16 18 16 12 13 15 17 19 16 16 15 16 18 21 25 31 34 29 31 32 30 27 29 33 36 21 21 25 23 23 27 33 31
11 6 4 3 5 17 19 5 14 18 16 11 9 11 17 19 16 18 16 13 17 20 20 23 28 33 34 34 32 29 34 28 27 32 34 24 26 29 27 25 23 25 28 33
8 10 7 5 5 6 3 18 11 7 15 6 16 21 20 18 14 15 20 20 20 28 27 25 30 33 32 33 30 31 28 29 28 32 24 27 29 32 32 29 26 28 28 31
4 5 10 10 10 10 10 7 13 8 13 21 22 16 17 15 11 19 20 23 28 28 28 32 32 30 34 32 30 28 31 25 26 32 29 29 29 36 37 32 27 25 26 26
3 3 3 5 8 12 2 17 13 18 19 20 14 13 16 19 20 20 19 19 20 24 33 37 31 31 36 31 29 28 26 31 32 29 28 29 33 36 36 31 27 24 20 22
4 7 3 5 6 13 18 18 17 18 12 13 17 19 18 20 21 20 20 22 22 30 34 36 32 30 40 29 27 25 31 32 34 28 29 29 33 35 36 32 24 20 24 23
7 5 7 10 7 12 17 21 15 15 14 17 18 19 19 22 23 26 23 23 22 31 30 33 30 29 31 28 28 25 30 32 33 32 29 30 31 34 34 28 20 25 23 25
9 10 9 13 17 19 13 13 13 17 17 19 19 20 23 25 26 25 23 23 23 30 32 31 29 28 32 30 30 28 30 31 34 31 28 26 26 27 21 16 18 22 26 21
9 10 7 10 11 9 13 13 15 17 18 21 24 23 22 22 24 25 22 26 31 30 33 31 32 33 31 34 29 32 33 35 29 28 23 21 23 22 17 17 8 13 23 25

GFSCGP_925_spd_027.txt.gz
Wind_Speed
3 4 4 3 1 3 4 3 7 7 7 6 7 10 18 15 16 17 15 13 11 11 16 25 31 34 36 38 39 38 36 37 38 29 21 19 25 38 39 38 38 37 36 35
4 3 4 1 3 4 6 6 8 7 7 7 8 14 13 17 13 13 12 11 13 14 15 23 29 33 34 34 36 39 39 34 30 35 34 28 21 22 37 42 41 39 37 37
3 3 4 2 5 6 4 3 4 5 7 5 3 7 5 7 10 13 9 8 12 12 13 14 24 28 32 35 38 38 39 36 34 34 34 37 34 27 18 29 37 38 40 40
5 3 4 5 3 5 4 3 5 7 6 2 6 4 5 6 8 9 8 9 9 10 10 12 19 25 31 34 37 36 32 33 35 36 37 32 26 23 25 23 32 41 42 42
6 2 2 2 1 3 7 5 7 8 4 2 4 2 3 8 8 9 11 11 8 7 8 9 16 24 26 28 32 34 31 29 28 30 34 38 30 29 33 35 30 38 43 43
8 4 3 2 3 4 6 6 12 4 4 2 6 7 1 3 3 7 5 8 8 8 7 10 17 20 21 23 30 28 29 30 25 27 31 34 39 34 30 30 33 33 41 43
7 3 4 5 5 8 11 6 4 5 2 5 5 4 4 5 9 8 8 8 7 7 4 6 8 17 21 24 31 31 32 30 23 24 25 32 32 34 32 30 28 31 35 38
4 4 3 6 3 2 4 2 3 4 3 4 13 4 6 9 8 5 4 5 6 7 2 4 5 10 11 19 25 28 33 26 31 29 27 29 29 27 31 30 32 32 31 37
6 4 4 6 1 2 5 3 4 1 4 1 4 4 2 6 5 6 7 7 6 7 3 4 7 8 6 16 23 25 22 28 31 37 33 30 21 22 31 36 35 32 35 34
3 5 4 2 2 3 2 3 4 3 3 5 6 4 4 6 7 11 15 14 8 3 4 4 7 14 24 30 31 26 26 26 28 32 34 29 21 27 30 33 33 34 38 35
4 2 7 6 3 1 4 3 2 2 4 5 4 6 6 3 12 22 27 24 18 9 8 9 16 22 26 22 13 19 24 25 30 34 26 30 35 33 29 28 29 31 35 36
3 2 4 7 4 4 3 2 2 4 6 3 3 9 8 14 21 22 18 15 9 4 5 6 11 19 20 14 21 26 27 26 26 26 31 32 37 37 26 27 34 36 34 37
2 2 4 5 5 6 4 4 3 2 2 6 3 9 11 23 22 20 20 10 7 6 7 7 11 14 12 19 23 29 28 24 28 31 35 33 32 36 27 26 29 34 35 31
4 2 6 6 4 3 7 5 6 3 2 10 15 22 22 21 23 20 9 8 7 6 7 7 7 12 16 18 23 27 26 32 30 33 32 32 35 30 34 28 28 30 29 29
5 3 4 10 9 10 15 17 14 13 13 10 25 22 20 15 8 5 6 10 13 14 15 10 10 10 17 22 23 22 28 32 32 31 33 34 33 33 31 33 26 26 25 29
1 3 3 9 9 12 15 14 18 17 16 16 18 18 7 11 7 9 11 12 15 18 18 13 12 16 19 20 20 28 31 32 31 34 32 32 31 29 33 30 26 29 27 27
1 0 3 5 5 10 8 5 2 3 3 6 12 15 3 8 12 12 14 14 16 16 8 13 15 23 25 20 26 27 30 31 27 33 36 29 30 33 27 18 24 28 29 25
4 2 1 4 5 3 5 9 5 7 7 8 9 8 7 10 17 16 14 15 15 13 17 17 24 27 22 26 27 30 31 31 29 31 28 34 32 27 21 22 26 29 30 27
8 5 2 1 2 9 10 4 2 3 9 7 6 9 18 20 19 17 14 13 12 17 19 24 29 33 27 29 33 29 32 26 30 26 33 29 27 29 23 23 28 33 31 29
8 5 5 2 1 5 6 5 3 3 14 4 9 16 14 10 13 18 18 19 21 25 25 27 26 30 30 35 35 29 27 31 26 31 25 31 34 28 25 26 30 35 32 30
4 2 12 9 5 8 11 9 1 3 8 17 14 7 12 11 12 21 21 20 27 28 31 34 35 34 36 36 36 29 27 30 30 28 29 29 35 27 28 31 30 34 32 29
7 5 4 2 3 10 3 4 2 8 10 10 7 7 15 18 21 21 21 21 23 29 34 35 34 35 35 34 33 25 30 30 27 27 27 28 26 31 29 31 33 35 30 26
4 7 4 9 7 6 4 5 5 6 5 5 12 16 16 20 23 24 21 23 23 30 33 34 33 34 35 29 30 29 26 26 28 23 23 26 32 28 31 26 31 31 31 22
5 5 5 3 4 5 10 15 4 4 5 12 13 17 18 21 21 24 23 22 21 30 31 33 33 32 31 31 32 28 34 28 28 26 27 32 31 27 28 25 29 26 29 17
5 2 5 7 13 9 9 3 5 7 10 14 14 14 16 19 21 21 21 22 27 32 35 35 32 30 32 33 33 31 25 28 22 26 27 27 23 25 24 24 26 26 23 19
7 7 5 7 7 6 6 4 5 8 9 12 15 19 19 22 20 23 21 30 32 33 37 38 36 33 32 32 30 28 27 21 26 27 24 22 25 22 21 22 24 25 19 20

GFSCGP_925_spd_030.txt.gz
Wind_Speed
2 4 3 6 5 4 2 2 5 5 3 5 3 6 10 10 14 12 9 8 8 9 10 18 25 31 32 36 35 34 35 34 35 36 35 30 29 24 12 27 32 35 39 38
4 3 4 5 1 1 2 3 5 5 5 3 4 6 6 7 6 7 7 7 7 5 7 16 23 28 31 33 33 33 31 30 30 29 30 23 20 26 25 22 18 28 33 39
4 3 3 2 4 4 3 3 2 5 6 2 1 3 5 4 8 8 7 5 4 5 6 7 17 23 27 31 31 30 30 28 25 26 28 30 26 29 28 30 28 25 27 37
3 2 4 2 1 2 4 1 2 5 5 3 5 4 5 5 6 6 6 5 4 5 5 6 13 20 21 27 29 26 28 29 21 24 27 27 25 20 23 25 25 27 25 28
5 1 2 1 1 1 6 3 5 4 5 2 3 2 3 5 5 5 6 6 5 3 2 4 8 15 16 23 28 28 26 31 19 24 23 23 26 25 22 25 28 29 29 29
5 4 3 1 2 3 5 4 4 4 3 0 5 5 4 1 3 2 4 6 6 4 3 3 8 12 13 18 25 26 26 25 24 25 26 26 27 27 25 27 26 29 33 33
7 3 1 4 4 5 10 6 4 3 3 6 3 1 1 6 4 2 4 8 8 7 4 4 7 10 12 17 21 21 18 23 26 29 31 29 27 28 18 24 28 29 30 31
3 3 5 6 2 1 2 3 4 4 3 5 8 4 4 7 6 2 2 6 8 9 5 6 8 10 10 14 16 11 14 20 24 27 30 29 28 24 18 24 28 29 29 30
3 4 4 4 2 2 3 3 2 0 2 1 3 2 6 5 3 2 6 7 8 7 4 5 9 9 12 15 14 8 15 19 21 24 26 31 27 22 25 30 33 30 29 29
1 4 2 4 3 5 3 1 3 3 3 5 5 4 5 7 4 5 9 6 6 7 5 7 10 13 14 15 13 13 20 22 21 24 25 30 35 38 35 38 34 28 29 30
3 3 5 3 4 2 5 3 4 2 4 4 4 6 6 7 3 10 11 12 11 4 6 6 12 23 22 20 13 16 20 25 30 24 24 26 34 37 33 34 39 28 29 33
1 3 4 4 6 5 2 2 4 4 5 2 3 8 8 5 13 15 14 10 8 6 6 7 16 20 18 17 18 19 24 25 26 22 24 32 31 37 33 36 35 31 30 30
2 1 3 2 5 4 3 2 4 2 3 6 3 7 5 16 22 16 7 8 7 8 8 8 15 17 22 24 20 19 27 27 26 30 31 32 29 33 36 37 32 32 30 32
4 2 5 6 3 1 5 3 2 4 2 5 15 26 27 18 18 10 7 8 8 8 10 11 12 16 23 24 19 24 26 23 28 30 33 31 34 32 32 36 32 32 36 30
3 3 3 6 8 6 12 11 11 11 11 8 17 13 20 19 10 7 8 10 12 13 15 16 14 10 19 24 27 29 23 25 27 27 30 31 29 35 36 27 36 35 29 27
1 2 2 6 6 8 12 11 12 12 14 15 22 27 12 9 5 8 9 13 19 21 19 18 15 20 26 27 28 30 29 28 29 28 27 29 30 32 28 34 35 20 23 25
4 2 2 5 5 8 9 7 8 5 6 6 9 15 5 9 7 11 19 19 20 18 17 19 17 26 29 30 30 27 29 29 28 30 32 28 30 26 31 30 25 27 24 28
5 4 3 4 5 2 4 1 4 10 8 10 12 10 7 11 19 14 12 17 17 16 21 21 26 31 30 31 31 30 29 32 33 32 32 26 28 28 26 27 31 31 30 30
5 4 2 1 3 8 8 5 5 3 11 11 10 7 15 14 13 15 10 12 20 22 24 27 32 32 36 36 33 35 33 33 32 33 28 26 28 29 27 26 30 32 29 30
5 3 3 2 2 6 5 4 3 2 9 5 1 9 9 10 12 17 20 20 21 30 30 31 36 38 36 37 37 35 36 33 31 32 25 31 29 27 25 29 29 28 28 32
3 2 11 5 4 9 11 9 2 2 7 4 3 5 10 9 10 19 19 23 32 32 36 39 36 34 35 36 35 34 34 31 36 27 33 30 24 25 27 24 27 32 32 31
8 6 4 3 3 10 6 4 7 5 1 4 4 6 12 16 18 19 21 21 25 28 35 37 35 36 37 36 34 32 31 34 29 33 26 25 28 25 24 28 35 30 29 24
4 7 5 10 8 5 6 5 5 3 3 4 5 9 10 14 19 20 20 23 24 30 34 36 36 38 41 38 35 32 32 31 34 29 30 30 26 25 25 31 30 26 23 20
5 6 5 2 5 11 11 5 4 2 3 6 6 7 10 15 16 20 18 19 22 33 34 38 37 36 36 37 38 36 34 32 30 33 25 25 24 24 26 25 24 23 19 21
5 5 5 9 12 9 5 3 2 3 4 5 7 6 10 12 16 19 21 20 28 33 37 38 37 36 37 39 35 32 30 26 25 25 25 22 23 25 23 23 25 19 20 25
7 7 6 8 7 6 5 3 2 2 4 6 7 11 10 13 17 22 18 28 30 34 41 38 38 36 37 36 31 27 25 26 25 21 20 19 21 20 19 22 20 20 25 26

GFSCGP_925_spd_033.txt.gz
Wind_Speed
3 5 2 6 4 3 2 2 4 5 1 4 7 6 4 4 8 8 7 7 7 7 9 17 21 25 28 29 30 31 31 27 29 30 29 27 23 20 22 23 13 13 24 30
5 2 4 3 2 1 1 3 5 4 2 3 6 5 4 4 3 4 5 5 5 4 6 12 16 20 25 25 24 26 28 22 24 26 25 20 17 18 20 21 19 19 18 12
3 2 3 2 2 4 3 4 2 5 4 5 8 3 3 1 3 3 3 2 1 1 4 5 10 12 18 22 23 21 22 17 20 21 23 23 20 20 23 23 23 22 21 22
2 3 2 2 0 2 3 2 2 4 5 2 3 4 6 4 2 2 3 3 3 2 3 3 6 8 11 15 17 16 17 14 16 18 20 21 21 22 21 21 21 21 21 22
2 3 3 2 1 2 6 4 5 2 3 3 2 3 3 7 3 1 5 6 5 6 6 6 6 6 6 11 13 13 12 11 12 14 17 20 22 23 21 18 19 20 24 23
2 4 2 1 0 2 6 3 5 4 3 1 4 4 5 5 6 2 2 6 6 7 7 8 7 7 8 11 12 12 8 10 12 15 17 21 22 24 24 20 17 21 22 23
6 2 4 4 3 4 10 7 4 4 3 5 2 1 3 6 6 6 2 6 8 8 7 7 8 9 11 14 16 14 10 12 15 17 19 19 20 18 20 18 22 24 25 24
1 2 5 7 3 2 3 3 4 4 3 5 5 5 2 6 6 4 3 6 7 8 7 7 10 11 15 18 20 17 11 14 16 19 21 20 19 20 21 24 23 24 25 25
3 3 5 3 3 2 0 2 2 0 1 1 4 4 2 4 4 2 7 7 8 8 7 7 9 14 20 23 23 20 17 17 17 20 23 22 21 23 25 29 26 23 27 28
2 3 1 5 1 3 2 3 1 3 3 5 5 5 5 11 7 6 7 8 8 7 7 6 12 18 23 24 23 20 20 25 24 27 26 22 24 28 30 27 25 23 28 25
1 3 3 2 2 1 4 1 4 3 3 4 4 6 5 10 7 4 7 8 6 6 6 7 15 22 28 33 33 31 33 29 26 28 27 27 31 32 32 33 35 35 34 31
1 4 4 6 4 3 2 2 3 4 3 1 3 8 3 10 9 5 7 4 6 6 7 9 20 26 29 32 35 33 35 31 31 32 27 28 28 31 28 33 33 34 35 30
4 1 2 3 4 3 2 2 4 5 3 6 4 6 5 5 9 9 6 7 7 8 10 11 16 20 23 28 32 30 31 36 40 40 30 26 26 28 29 30 32 33 33 30
3 3 5 6 3 2 4 4 4 5 3 3 11 16 23 16 13 17 14 7 9 11 12 14 13 18 22 25 30 32 33 36 37 39 33 29 28 30 30 29 31 28 29 35
3 5 4 5 7 4 7 12 9 10 7 8 13 8 18 13 16 14 7 9 13 16 18 18 18 20 28 27 32 28 32 29 35 34 34 33 32 32 32 29 31 28 31 32
0 2 3 5 4 2 8 12 11 16 15 16 22 26 20 16 6 7 9 13 18 21 21 19 19 28 31 34 30 36 35 32 34 32 32 32 30 33 36 32 30 30 25 24
5 4 2 5 5 7 9 9 13 5 5 9 10 15 5 5 6 8 13 14 19 19 17 24 23 28 31 33 36 34 36 39 36 36 33 31 31 31 32 35 30 33 26 27
6 5 3 3 4 2 5 3 3 8 6 10 11 8 6 8 10 6 11 15 15 18 22 21 28 33 36 37 37 39 39 37 36 34 37 32 33 32 32 33 33 33 28 30
4 4 0 1 2 8 8 1 7 6 7 11 10 3 8 7 11 9 9 5 17 19 24 29 33 36 39 38 39 38 38 36 35 35 35 33 32 30 28 27 31 32 28 29
5 4 4 2 3 6 4 3 3 4 8 5 5 4 6 5 8 14 14 16 19 28 30 31 33 35 36 37 37 37 37 36 34 34 35 33 32 24 29 32 30 28 27 26
4 2 8 5 4 9 12 8 3 3 6 5 3 6 6 4 6 16 17 18 27 30 32 37 39 34 34 38 38 36 37 35 37 36 34 35 27 28 31 25 28 25 24 25
7 7 4 3 3 10 8 4 8 6 3 3 3 6 7 8 12 14 15 16 22 26 34 37 37 35 39 38 37 36 34 38 37 34 32 32 30 28 23 27 26 26 25 26
4 6 5 10 8 4 6 3 3 4 4 3 4 6 6 10 13 14 16 18 22 28 30 37 36 39 39 39 37 35 36 38 33 31 28 28 26 28 28 23 24 23 23 20
5 5 4 1 7 16 11 5 3 5 5 4 4 3 4 9 12 15 15 16 22 28 32 37 37 36 38 39 39 37 38 33 31 29 24 24 24 21 23 23 21 22 20 20
6 6 5 7 14 9 8 6 5 4 2 1 3 3 6 8 11 12 15 17 24 30 32 35 34 34 38 41 39 38 31 27 24 23 22 21 20 21 22 22 22 21 24 26
8 7 6 9 9 6 4 4 5 5 3 1 3 5 7 10 9 15 12 22 27 30 33 32 34 35 37 39 38 37 33 27 22 21 20 18 17 17 17 16 16 25 26 26

GFSCGP_925_spd_039.txt.gz
Wind_Speed
3 4 0 2 3 3 4 2 2 2 2 3 2 6 8 6 4 5 3 2 2 3 4 4 7 10 13 15 15 15 15 17 18 19 19 18 19 20 19 18 16 14 14 15
4 1 2 4 3 3 2 1 3 1 3 1 3 5 7 8 4 4 4 2 1 2 4 6 6 7 9 12 14 14 13 14 14 14 14 13 15 17 19 20 18 16 15 14
4 3 3 3 2 2 1 2 2 1 2 3 4 4 8 6 4 5 5 4 4 4 7 8 8 8 8 10 13 14 15 14 14 13 13 13 14 17 15 19 20 19 15 14
1 2 3 2 2 3 1 2 1 2 1 2 1 5 5 8 8 7 6 5 6 6 8 11 11 11 10 11 12 14 16 18 17 16 16 14 12 10 17 19 20 19 14 15
1 2 3 2 2 2 2 2 1 1 2 1 2 3 1 8 10 10 7 3 4 6 7 9 12 14 15 13 13 16 20 22 21 22 21 19 19 20 22 22 19 18 18 20
1 2 2 1 2 2 1 3 4 3 2 1 2 5 4 7 10 10 5 3 3 5 9 12 14 12 13 14 15 19 22 23 25 26 26 26 24 24 22 24 21 20 20 22
4 2 3 3 2 2 6 3 2 1 0 2 3 4 8 6 6 12 10 3 4 6 8 9 13 12 12 15 18 22 25 28 30 31 33 32 31 28 28 27 23 22 20 22
3 2 2 4 2 2 2 1 3 4 3 3 3 5 2 3 9 9 7 2 4 6 5 7 10 10 12 17 23 29 32 30 32 32 33 30 32 35 33 32 32 25 23 25
3 2 2 4 2 1 2 2 1 4 1 1 2 5 4 5 7 7 7 3 5 7 7 7 10 10 14 21 26 26 28 29 29 29 29 28 28 30 29 30 29 31 30 30
3 1 1 2 1 4 1 4 1 1 1 3 3 6 6 10 16 13 11 8 6 7 8 8 10 14 19 21 25 26 27 28 31 32 31 31 28 30 30 29 27 29 32 31
2 1 0 1 1 4 2 1 4 3 1 3 3 6 5 11 16 18 14 8 7 8 9 8 15 20 21 24 26 27 29 31 33 34 34 33 35 33 30 31 30 29 32 28
0 3 3 2 2 1 0 2 3 3 4 1 1 8 2 6 8 10 13 8 7 9 8 13 19 19 21 24 26 27 30 32 32 33 33 34 35 30 34 36 32 32 30 27
4 0 2 1 1 2 3 3 4 5 2 7 3 6 1 0 2 9 9 8 8 8 12 14 16 19 22 25 27 31 32 32 33 33 34 34 34 34 35 33 32 33 30 29
2 2 4 5 1 1 3 4 5 4 3 5 10 19 15 4 7 10 11 10 9 10 12 12 13 22 26 29 31 31 33 33 33 34 34 34 34 34 34 34 36 34 31 30
2 3 2 4 6 3 6 10 9 11 6 8 17 8 20 7 9 11 8 7 9 12 13 13 16 22 28 29 30 31 32 33 34 33 33 34 35 34 34 34 33 34 34 32
2 1 1 4 2 2 6 14 13 17 14 14 22 25 24 16 3 5 7 8 11 13 13 15 19 25 26 28 30 31 32 33 34 33 33 33 35 35 35 34 34 34 32 30
3 3 2 5 4 6 6 13 12 7 7 9 10 11 2 3 5 7 6 9 11 11 13 18 19 24 27 29 31 32 35 35 33 34 35 35 34 34 34 34 33 32 31 29
5 4 2 3 5 3 3 2 4 10 7 16 11 12 6 5 4 7 9 9 7 13 17 17 23 26 29 31 31 33 33 33 34 35 37 36 34 34 34 32 31 31 29 28
2 3 0 2 3 9 6 2 5 6 5 10 17 17 7 2 4 5 4 2 10 14 21 23 25 28 30 31 31 31 33 35 35 33 37 36 33 35 33 28 32 30 27 25
4 4 2 2 3 6 3 1 3 3 6 4 9 6 3 1 6 7 2 8 14 19 21 23 24 26 26 28 31 31 33 33 33 36 40 38 37 35 26 33 22 28 26 25
3 2 7 5 4 10 11 4 2 2 5 2 5 4 4 4 5 3 9 13 17 19 22 22 22 23 25 29 30 31 33 32 37 41 39 39 37 29 24 24 28 21 23 22
7 7 5 4 4 10 7 4 6 5 1 4 3 3 5 7 7 8 10 12 17 19 21 21 22 24 27 28 29 30 33 37 40 39 38 39 34 25 21 24 19 21 19 21
3 7 5 11 9 2 8 6 4 2 3 4 3 5 5 5 5 8 9 11 15 19 20 22 23 26 27 28 30 30 36 39 40 39 38 36 33 24 19 22 21 18 18 19
4 4 4 1 7 19 13 14 10 7 8 5 5 4 4 5 6 9 9 9 15 16 20 21 24 25 28 30 32 33 36 39 39 37 37 33 27 23 20 19 19 18 18 18
3 5 5 8 12 12 15 13 14 9 5 5 4 5 4 3 6 7 9 11 14 18 19 21 23 24 27 32 33 34 38 38 38 36 34 29 26 22 22 21 20 19 19 20
5 9 5 14 4 7 8 4 3 7 8 8 7 4 4 5 5 7 9 12 15 17 21 22 23 25 29 32 33 33 37 37 37 35 31 29 27 25 22 19 18 21 22 25

GFSCGP_925_spd_042.txt.gz
Wind_Speed
2 5 4 1 1 1 2 3 5 2 1 4 2 5 10 11 10 10 9 8 6 4 3 2 3 4 6 8 10 12 13 15 15 16 17 18 17 16 16 15 16 16 15 14
4 4 2 5 4 4 3 5 6 1 0 4 4 10 10 13 12 11 10 9 7 5 3 2 1 2 4 5 7 10 12 13 13 13 15 16 18 18 18 16 17 17 17 16
4 4 5 4 5 5 4 7 4 3 1 2 7 9 12 14 11 11 10 8 6 6 5 4 5 5 5 6 7 8 10 13 14 13 15 17 19 19 19 18 20 18 19 18
1 2 6 5 5 4 6 2 1 3 4 5 2 5 8 13 15 14 14 11 9 7 7 7 9 10 11 9 8 8 10 14 15 16 19 22 23 23 22 23 22 22 21 20
4 3 5 6 1 2 3 1 3 4 6 6 6 5 4 9 14 16 15 12 9 8 5 6 8 10 11 9 9 10 13 18 20 22 24 24 24 26 27 26 26 25 24 23
2 1 1 2 2 1 3 3 1 1 3 5 5 4 4 6 8 13 15 12 10 8 6 6 6 6 7 7 9 12 18 22 25 26 26 26 28 29 29 29 30 30 29 26
3 3 2 2 4 4 4 5 3 4 4 3 5 5 9 3 6 10 16 13 11 7 4 3 5 7 8 10 13 18 23 27 27 28 28 28 29 30 30 30 30 31 31 29
5 5 2 3 2 2 0 3 4 5 4 4 3 6 0 1 4 9 12 10 7 6 4 4 6 8 10 13 18 23 25 28 28 28 29 29 29 29 30 30 30 31 30 30
3 3 2 4 2 3 4 4 3 3 1 4 3 5 7 4 9 11 13 11 8 4 4 6 9 10 13 17 22 24 27 29 28 29 30 31 31 30 31 32 32 32 33 33
2 3 1 3 1 4 4 4 3 3 4 5 4 6 8 9 13 13 15 14 10 4 5 7 10 13 17 21 24 25 28 29 30 30 31 31 32 32 32 33 33 32 31 33
0 2 4 2 6 4 3 3 2 3 4 4 7 4 3 1 5 12 14 14 12 8 7 7 11 16 20 23 25 27 28 29 31 31 31 32 33 33 33 34 34 32 34 36
2 2 4 1 3 2 3 3 5 4 4 3 4 9 3 2 3 5 9 11 12 9 8 10 14 18 21 24 26 28 29 29 29 31 33 33 34 35 35 35 35 35 36 34
2 2 3 4 3 2 6 5 5 2 1 10 8 7 4 3 2 3 7 10 11 10 11 11 16 18 22 25 27 28 27 29 30 31 32 33 33 34 35 36 35 35 35 35
1 3 6 7 3 1 4 7 10 10 5 10 14 22 18 9 7 9 9 10 10 12 10 12 14 19 24 25 27 27 27 28 29 30 31 32 33 34 35 35 36 36 35 35
2 5 4 10 9 8 11 14 11 17 21 11 22 19 20 17 18 16 8 6 7 10 11 13 14 20 24 25 26 26 27 28 29 31 32 34 35 35 36 36 36 35 35 34
2 2 2 5 1 4 11 17 18 22 23 23 26 26 21 10 3 5 4 7 10 11 12 14 17 22 24 25 27 27 27 29 30 32 34 36 36 36 33 35 35 34 34 34
3 2 2 5 2 7 11 18 15 11 13 12 14 11 5 6 8 10 9 9 10 11 13 16 17 21 23 26 27 27 29 32 34 33 35 34 36 36 37 35 35 35 34 34
3 3 2 5 8 7 4 6 6 10 13 12 17 17 14 12 9 10 9 9 9 11 15 15 19 21 23 25 26 27 31 34 31 34 35 35 37 38 38 35 35 32 32 32
2 4 3 4 4 15 13 4 0 2 8 9 14 14 11 7 6 12 4 3 8 12 16 19 20 22 24 25 26 28 30 31 31 33 36 36 36 40 35 36 37 30 24 28
3 3 4 2 4 5 5 4 3 2 9 4 5 9 11 3 11 10 2 7 12 16 17 20 21 22 23 25 28 29 28 30 33 32 37 37 40 35 38 37 28 25 27 25
4 5 9 9 6 9 9 4 3 4 9 4 5 10 6 8 8 9 8 10 13 15 18 19 19 21 22 27 28 27 29 29 34 37 38 38 40 36 35 32 26 24 24 20
7 6 5 4 6 9 9 9 5 10 4 6 7 8 9 10 9 9 9 10 13 15 17 17 19 20 25 26 26 27 29 34 35 37 37 39 38 37 33 29 26 25 23 21
6 8 3 10 6 4 11 13 11 6 12 13 10 11 9 9 8 7 9 10 12 15 16 18 19 23 24 25 26 29 33 35 37 37 36 38 38 35 31 28 25 22 22 19
6 5 5 6 8 15 17 14 16 15 16 16 13 11 8 9 6 8 8 9 11 14 16 19 20 21 24 27 28 29 34 33 36 35 37 36 35 34 32 28 24 20 19 18
4 4 11 21 17 18 17 12 13 15 11 11 11 9 9 7 6 6 7 8 11 14 16 19 20 22 25 27 28 31 34 31 35 35 36 35 32 32 30 28 24 22 21 20
10 15 11 16 19 19 22 20 19 16 13 12 10 8 7 7 5 6 7 8 11 14 18 19 21 23 24 26 29 31 32 32 34 33 33 33 32 31 29 26 24 20 22 24

GFSCGP_925_spd_045.txt.gz
Wind_Speed
3 6 9 6 3 8 8 9 11 6 4 6 15 12 10 11 12 12 11 11 10 9 8 6 3 1 1 3 6 9 11 14 16 16 17 18 18 18 18 17 16 17 18 17
5 11 5 2 2 5 7 10 10 1 2 6 11 14 13 15 14 13 12 12 11 9 9 9 6 4 3 4 5 9 11 13 14 14 15 16 19 20 21 21 20 20 20 19
10 5 2 4 5 7 8 9 9 8 3 13 12 17 15 13 13 13 13 12 11 10 9 8 8 5 5 7 7 9 10 12 14 14 16 18 21 22 22 21 22 22 21 23
6 6 6 6 8 5 10 4 3 5 7 6 1 6 11 14 14 14 14 13 12 11 9 7 7 7 8 10 8 10 11 14 15 18 20 22 23 23 23 25 25 27 25 25
4 3 5 8 3 1 3 1 5 8 11 11 13 5 7 12 12 16 16 16 14 12 10 8 6 6 8 9 8 10 12 15 18 21 23 23 24 24 26 26 28 28 29 28
4 0 3 4 1 2 2 6 8 6 7 6 9 7 6 7 10 11 16 16 13 11 9 9 8 7 7 5 7 10 14 17 21 23 25 25 26 29 29 29 30 28 27 27
5 8 3 2 6 5 6 7 4 6 5 2 4 5 9 5 4 3 12 14 12 11 10 9 8 6 6 7 9 13 16 21 24 25 26 27 27 29 30 30 27 29 27 26
6 6 7 2 4 6 4 6 6 6 6 6 4 6 3 5 4 3 7 11 11 12 10 8 8 7 9 10 13 17 20 25 26 27 28 28 28 28 29 29 31 31 30 29
4 3 4 3 2 3 6 5 4 6 8 5 5 6 8 3 5 7 10 11 12 11 10 9 10 10 11 13 17 20 24 26 27 28 28 29 30 30 30 33 32 31 32 31
4 4 2 4 2 3 6 4 4 4 5 8 5 7 8 7 7 8 11 13 12 11 9 8 10 11 13 16 19 22 24 27 28 29 28 29 30 31 32 32 33 33 34 33
4 3 5 2 7 2 4 4 5 4 5 7 10 4 7 4 2 9 10 11 12 13 11 7 10 13 16 18 21 23 25 27 28 28 28 29 31 32 32 33 33 34 35 34
3 4 5 1 4 2 4 6 6 5 5 6 4 12 4 4 3 2 5 5 6 9 8 8 13 15 18 20 23 25 26 27 27 28 29 30 30 31 31 32 33 33 35 36
2 3 4 5 3 3 5 7 9 7 3 11 12 11 5 4 3 1 4 8 9 10 7 11 13 16 18 22 24 25 26 27 28 29 29 30 30 31 32 33 34 35 34 35
2 4 8 9 6 3 5 6 8 11 7 15 17 21 18 12 5 12 10 7 7 8 8 10 11 16 20 23 25 26 26 27 28 29 29 31 32 33 33 35 36 35 33 35
3 6 7 11 11 10 14 16 15 17 22 17 22 21 22 21 17 10 8 5 6 7 9 10 11 16 22 24 24 25 26 27 28 29 31 33 33 35 35 35 37 34 36 35
1 3 7 10 2 6 12 18 19 21 21 24 23 22 13 6 9 9 11 10 9 9 10 11 14 19 21 23 24 26 27 27 27 31 32 33 34 33 36 36 33 38 38 37
3 3 3 5 1 10 13 8 10 11 11 11 13 13 12 13 11 12 14 10 10 9 10 13 15 19 22 23 25 26 28 28 29 30 33 35 34 36 34 39 37 39 37 38
3 5 3 5 9 5 4 9 8 8 13 13 12 13 11 11 11 13 14 9 7 8 12 13 17 20 22 24 25 26 27 29 30 33 35 35 33 36 37 38 38 38 35 36
5 5 3 3 6 14 12 5 3 3 11 13 11 4 9 13 11 14 8 1 5 10 13 16 18 20 23 23 24 27 28 29 29 31 34 34 35 37 37 38 39 36 35 29
4 7 5 4 4 5 5 4 1 2 10 5 4 10 15 14 12 10 4 5 10 13 14 17 18 20 21 22 24 26 28 27 30 32 35 37 36 38 38 39 38 36 31 28
4 5 11 9 7 8 11 7 2 5 8 10 12 14 15 13 11 14 9 10 12 12 15 17 18 19 21 23 24 26 26 27 30 35 37 36 39 38 38 38 36 34 30 28
6 4 5 4 4 7 7 7 4 12 14 16 16 14 14 15 15 13 11 9 11 13 15 16 18 20 21 22 23 25 26 33 32 36 37 38 39 37 37 37 36 31 28 26
5 9 4 5 5 6 3 13 16 15 16 15 16 15 15 15 14 12 10 10 11 13 15 16 17 20 21 21 23 26 29 31 33 36 37 38 38 36 36 33 32 30 25 23
8 10 6 7 6 15 17 18 13 13 16 17 17 17 16 15 12 10 9 8 10 13 14 16 18 19 21 22 24 25 30 32 35 35 37 36 34 37 36 33 30 28 24 20
8 5 12 18 19 19 17 20 18 20 20 21 20 17 14 12 10 9 8 8 11 12 14 15 18 20 22 22 24 26 28 31 33 35 34 34 32 32 33 32 31 28 27 24
10 16 12 13 18 18 22 21 22 22 22 20 19 18 10 10 9 8 8 10 10 12 14 16 18 20 21 22 24 25 29 32 34 32 33 32 31 32 30 29 30 28 21 23

GFSCGP_925_spd_048.txt.gz
Wind_Speed
3 2 6 5 4 5 7 8 8 8 6 2 7 11 8 13 8 7 7 7 8 9 14 10 6 3 2 1 4 7 10 11 14 14 16 16 18 18 19 22 21 20 20 18
3 6 4 3 4 4 7 9 9 2 7 2 8 12 9 15 11 9 9 8 9 7 9 12 11 6 4 3 2 4 9 11 13 13 12 14 16 19 22 22 21 19 21 23
7 4 3 2 1 5 7 7 7 7 2 8 7 11 14 9 10 8 7 7 7 9 8 9 14 14 9 7 5 3 8 10 12 13 15 17 20 22 23 22 22 24 24 25
5 5 2 2 6 7 7 8 6 6 5 3 3 5 4 11 9 9 9 8 8 8 6 1 2 1 2 4 7 3 7 11 14 15 18 22 22 23 24 25 27 28 25 25
1 1 2 4 2 6 4 4 4 5 7 8 8 3 4 11 7 10 10 9 8 7 7 7 10 4 2 6 7 7 10 13 15 18 21 21 24 24 27 26 28 30 30 27
7 3 2 5 3 3 3 5 8 4 4 4 10 7 4 6 11 9 10 10 10 9 8 7 4 2 4 3 2 6 11 16 16 20 22 22 25 27 27 28 29 28 27 26
8 8 4 2 3 4 4 4 2 3 3 3 6 4 4 7 6 3 12 11 10 9 7 6 6 8 5 3 7 10 14 16 18 22 23 24 25 26 27 27 27 27 28 27
4 4 5 4 2 5 6 2 3 4 2 2 4 5 4 7 7 4 4 10 9 8 7 7 8 5 3 8 10 13 15 17 21 21 24 23 24 25 27 27 29 30 29 29
6 4 4 4 4 2 3 3 3 4 8 4 5 3 4 4 5 4 5 8 8 7 6 6 7 7 8 11 13 13 17 21 21 22 23 23 23 25 28 29 29 30 29 29
2 2 1 4 2 4 3 5 2 2 3 4 4 6 3 4 5 4 6 6 6 5 6 4 4 8 9 10 14 17 17 20 22 24 23 23 25 26 27 29 30 31 32 31
3 3 3 1 6 2 3 3 4 1 2 3 3 2 2 7 3 9 8 9 9 9 9 8 10 5 11 14 15 16 19 22 24 24 24 25 26 27 29 28 28 30 32 33
4 3 4 3 4 5 3 4 3 2 4 3 2 5 8 8 7 7 8 7 7 4 1 6 4 6 13 12 15 18 21 23 23 24 25 26 28 27 27 29 31 28 28 29
5 3 4 2 2 2 3 4 4 5 2 5 1 5 6 7 5 5 3 2 1 2 7 3 4 5 10 13 17 21 22 22 24 25 26 27 27 27 29 29 30 30 31 37
3 3 4 3 3 2 4 3 4 4 2 4 6 14 9 10 6 7 7 6 7 4 2 3 4 6 11 16 19 21 21 22 24 26 25 25 28 30 29 31 33 35 37 35
2 3 5 8 9 8 8 10 10 12 12 7 12 12 14 6 6 5 4 3 1 5 5 4 4 7 14 17 19 21 22 24 24 25 25 28 27 29 34 36 34 36 33 37
3 2 4 4 6 3 7 13 13 12 12 13 14 14 6 3 6 6 6 7 7 6 5 6 6 11 13 16 19 21 23 24 24 25 25 26 30 33 35 35 34 35 36 38
4 2 2 4 2 8 8 4 2 3 4 4 6 7 4 6 6 7 8 8 7 5 5 6 6 10 14 17 20 22 24 22 25 25 26 30 32 33 35 35 34 35 38 35
2 2 2 3 6 3 2 4 4 1 4 7 7 6 5 4 6 5 8 9 3 6 6 6 9 13 16 19 22 22 20 25 25 24 28 31 31 35 36 35 37 38 36 36
2 3 2 1 3 8 9 4 5 5 4 7 8 8 7 9 8 7 6 5 4 5 6 9 12 15 19 20 21 20 23 24 25 26 31 31 32 38 37 37 37 38 37 36
0 4 2 2 2 4 5 4 2 1 2 9 12 11 11 8 6 4 8 2 2 6 9 12 14 17 18 21 20 22 23 23 24 30 32 32 37 38 37 37 38 38 36 36
3 3 5 5 4 5 4 6 0 2 4 8 7 6 6 5 5 9 8 6 6 8 10 13 15 16 19 21 23 22 23 22 27 32 33 37 38 38 37 39 38 37 38 35
6 5 4 3 3 5 5 3 1 4 6 6 6 7 9 9 11 10 8 5 6 7 9 12 14 16 20 21 22 21 22 26 29 34 36 37 38 37 37 37 37 35 34 32
2 5 1 2 4 2 6 6 6 7 4 4 6 8 10 12 10 9 5 3 4 7 10 12 14 18 19 20 21 21 25 28 31 34 36 37 38 36 35 36 36 32 30 26
5 5 3 3 2 7 8 9 10 8 7 9 8 9 10 12 8 7 5 4 6 8 10 13 15 17 18 21 21 22 25 29 31 35 35 36 36 37 35 35 32 29 29 27
3 7 3 7 8 5 7 10 12 15 13 12 12 11 8 10 6 5 4 4 7 8 11 13 15 16 19 22 23 23 25 28 31 33 34 34 33 32 34 31 31 29 31 30
4 5 4 4 7 5 8 9 11 12 11 9 11 13 10 8 4 4 3 5 7 8 12 12 14 18 21 24 25 22 26 28 31 31 32 32 32 31 29 28 30 33 26 25

GFSCGP_925_spd_051.txt.gz
Wind_Speed
2 4 4 5 6 5 2 1 4 2 3 5 8 8 10 12 8 9 9 10 9 10 14 18 12 8 7 5 6 6 7 7 9 12 15 15 18 17 21 24 24 21 21 21
4 2 3 3 3 3 3 3 6 3 2 1 6 13 11 14 15 13 10 9 10 7 8 14 16 12 9 6 4 5 1 5 7 12 11 12 15 21 25 23 22 19 24 25
5 1 2 1 1 2 3 1 3 2 2 4 3 8 5 2 5 7 6 7 7 13 11 9 18 19 15 10 8 6 2 2 6 11 13 17 22 24 24 24 24 26 24 24
1 2 2 1 2 1 2 1 2 4 5 3 3 5 6 4 6 8 8 7 8 9 7 8 12 15 16 8 4 4 1 4 8 12 16 20 20 22 24 27 27 28 27 27
5 3 2 2 1 2 3 1 1 1 1 4 3 1 7 7 4 8 9 9 8 9 10 9 15 15 12 4 2 3 5 9 11 16 17 18 20 23 25 25 25 25 24 24
4 2 2 2 2 3 3 2 3 2 2 2 6 7 5 4 7 5 6 9 9 8 8 8 10 11 7 4 5 4 6 11 15 15 16 21 21 22 23 23 23 25 26 28
3 2 2 2 1 2 3 5 3 2 2 5 3 5 7 2 3 5 13 11 10 9 8 8 9 10 8 8 5 6 9 13 13 16 20 19 20 19 20 23 26 28 30 30
4 2 2 1 1 3 4 6 4 4 3 4 5 5 3 2 5 7 7 9 8 7 7 8 10 10 11 8 7 9 12 11 15 17 17 17 19 21 23 25 26 27 28 29
3 2 1 4 2 2 1 2 4 1 2 1 4 1 3 4 4 6 8 8 7 8 7 8 10 11 10 9 10 10 10 13 13 15 18 20 21 22 24 25 27 30 31 31
1 0 2 1 2 1 2 2 2 2 2 4 5 1 2 4 4 4 6 7 7 6 7 7 11 12 10 8 6 9 8 11 15 18 19 19 22 23 25 29 30 29 31 35
2 3 2 2 4 5 1 2 2 2 5 4 1 5 5 1 1 4 2 5 8 9 9 8 13 10 5 4 6 6 11 15 17 18 21 22 25 28 29 28 29 31 26 24
0 3 3 5 1 1 1 3 4 4 4 1 4 5 2 8 7 7 5 4 3 5 2 7 4 4 3 4 7 12 15 16 18 21 24 27 28 23 25 32 29 26 29 31
2 1 2 4 4 2 1 3 3 4 3 4 4 5 3 4 4 1 2 5 6 4 4 2 3 3 2 6 11 14 16 19 22 26 27 27 26 30 32 23 32 33 34 33
2 1 5 5 3 3 2 3 1 4 3 3 6 4 7 5 3 4 2 2 2 2 1 1 0 2 6 10 13 16 18 20 24 26 26 26 28 24 26 31 32 34 33 34
3 2 2 4 6 4 5 7 7 7 6 4 4 7 7 5 2 1 1 5 4 5 6 1 1 4 9 13 16 18 21 24 24 21 27 29 28 30 32 32 32 33 33 34
1 2 3 4 4 3 5 9 8 6 6 8 7 8 2 2 3 7 6 5 6 7 2 3 4 8 12 15 17 20 23 21 20 27 27 30 31 32 32 31 32 36 35 35
4 2 3 4 6 6 6 3 2 4 3 2 2 4 4 6 7 5 7 7 8 4 4 5 5 8 11 14 17 21 20 19 25 26 29 30 29 32 31 32 36 37 35 36
2 3 2 3 5 2 3 4 6 3 7 7 6 7 5 3 4 5 3 2 1 2 4 4 6 8 12 18 21 21 19 26 26 27 27 26 30 32 33 36 36 36 36 36
2 3 1 2 2 7 1 4 3 3 2 3 3 6 5 7 4 5 2 3 5 2 2 1 4 9 15 17 19 20 26 26 23 25 25 29 32 33 36 37 37 37 37 36
4 5 4 2 3 5 3 2 1 3 3 2 2 4 5 6 8 4 6 7 7 5 1 4 7 11 15 17 20 23 24 19 23 24 28 31 33 35 37 38 37 37 37 38
1 2 4 2 3 7 5 3 0 3 5 6 4 4 4 3 5 7 8 7 5 2 3 5 8 10 14 19 21 21 19 22 25 28 30 32 36 35 37 36 37 37 35 36
6 6 4 1 1 6 5 1 1 4 3 3 4 4 6 8 9 8 8 7 1 2 4 7 9 12 16 19 20 20 23 28 29 29 31 34 36 36 35 36 35 35 34 33
1 6 4 8 6 5 3 6 1 2 3 5 5 7 8 8 8 7 7 3 2 3 4 7 10 12 16 17 22 22 28 28 28 29 32 34 36 35 34 33 34 32 30 29
4 2 2 3 3 4 5 3 2 1 3 6 5 6 6 7 8 8 5 0 2 5 7 8 12 13 15 21 24 25 27 25 27 29 32 33 33 36 35 33 29 27 26 27
5 2 3 4 3 2 4 4 4 7 8 9 8 5 7 7 7 6 1 2 4 5 7 11 10 12 18 21 23 24 22 29 28 29 31 31 31 31 32 30 28 28 28 26
5 7 4 5 5 5 4 5 3 6 6 8 7 7 8 7 7 2 2 4 4 5 9 7 10 14 18 21 22 19 28 29 28 28 29 30 31 30 28 28 29 31 23 24

GFSCGP_925_spd_057.txt.gz
Wind_Speed
1 4 6 10 5 3 4 3 4 3 2 5 7 10 11 9 7 9 9 9 9 9 10 19 21 21 19 18 16 13 9 6 2 1 3 5 8 12 16 18 18 18 17 18
5 4 4 3 4 4 3 2 4 4 1 5 3 11 10 6 8 14 14 12 12 6 7 15 20 21 21 20 18 14 11 7 5 2 2 3 8 12 15 17 16 16 16 17
5 1 5 3 2 3 2 4 3 4 4 2 5 8 5 1 2 6 8 10 8 11 10 9 19 24 21 19 19 17 12 8 7 4 3 5 9 12 14 15 16 15 15 16
2 1 3 2 1 4 2 2 2 1 3 3 3 5 6 4 8 3 6 8 9 9 7 8 17 21 22 21 18 16 14 11 8 6 6 8 9 12 15 15 16 17 20 22
3 3 2 2 2 1 3 3 3 2 3 3 2 2 8 5 6 5 5 7 8 10 12 11 18 28 25 20 18 15 15 12 9 8 8 8 10 13 13 13 16 19 22 23
2 2 2 1 3 3 3 4 7 4 3 1 4 4 5 3 4 7 2 7 9 9 10 11 22 23 19 17 17 15 14 12 10 9 8 9 11 11 13 17 19 21 23 25
4 2 2 2 3 4 5 5 3 3 2 5 1 3 7 5 3 4 7 9 8 6 7 8 10 15 19 19 19 15 14 12 10 8 7 7 8 11 14 17 20 22 26 28
4 4 2 3 2 4 2 5 5 4 2 4 1 5 3 2 5 5 5 4 5 7 6 8 11 17 18 18 15 13 12 11 7 5 5 8 10 13 16 19 23 24 24 24
3 3 2 4 2 2 2 2 3 4 2 1 3 6 4 5 7 8 9 5 3 5 6 8 9 12 12 10 10 10 8 4 2 5 7 10 14 18 22 24 23 21 25 30
3 1 2 1 1 4 2 4 2 3 2 4 4 4 3 6 5 8 8 6 4 4 6 5 4 3 5 4 3 2 2 1 4 7 10 14 19 21 21 19 22 27 29 28
2 3 2 2 1 4 2 1 5 3 4 3 2 5 4 2 3 1 4 7 6 6 4 3 1 1 2 3 4 3 4 5 8 12 15 19 18 17 20 24 28 28 32 36
0 4 2 5 1 2 2 4 5 4 3 1 4 6 2 3 5 5 4 5 5 6 6 5 4 2 3 5 5 5 6 9 12 15 17 16 19 24 28 28 30 31 36 35
4 1 2 5 4 2 3 3 4 5 3 5 4 5 1 4 6 6 6 6 6 6 8 7 7 5 4 3 3 5 9 13 16 16 16 21 26 28 28 31 32 36 33 33
2 2 4 5 3 2 3 3 4 5 3 3 6 5 4 6 4 6 6 5 6 7 7 6 3 1 1 2 5 9 13 16 17 17 19 26 28 28 30 34 35 32 31 32
3 2 2 3 4 2 3 5 4 5 4 5 5 6 4 3 4 3 4 6 6 6 6 2 3 7 6 5 7 11 14 16 17 19 25 27 29 32 36 35 32 32 32 30
2 1 1 2 2 4 4 5 6 5 4 7 5 5 1 1 0 4 5 3 2 4 6 7 8 9 7 6 10 14 16 18 19 22 24 27 34 33 32 32 32 33 29 35
2 3 2 4 5 6 6 3 2 2 3 3 5 3 2 2 4 5 5 5 6 6 8 9 8 9 6 7 11 14 16 18 19 20 26 29 31 32 30 32 32 30 33 33
4 3 2 2 4 1 4 1 3 4 1 4 4 3 2 3 5 8 6 6 7 7 8 9 12 7 6 8 12 14 17 18 20 25 27 29 31 29 31 32 31 32 33 33
3 4 2 2 2 6 1 4 5 4 5 5 3 1 2 4 4 5 3 2 6 8 14 17 8 5 6 10 12 14 16 19 23 27 29 30 31 31 32 31 31 33 33 33
5 6 4 2 3 5 4 2 3 4 4 3 2 1 3 4 5 4 5 7 12 19 20 9 5 4 7 10 11 14 19 21 25 26 30 32 32 30 31 31 32 33 33 31
1 2 4 2 2 8 6 3 2 3 5 2 0 2 3 2 5 6 9 9 19 20 11 5 3 6 10 11 13 17 20 22 24 28 32 33 32 30 29 31 31 30 32 30
6 6 3 3 1 7 4 5 5 4 3 2 0 2 3 5 7 8 9 9 15 14 5 3 5 8 10 10 13 16 18 23 25 30 32 33 31 26 29 29 32 31 28 26
2 5 4 8 5 4 0 4 3 4 4 1 1 4 4 6 6 8 8 8 13 8 4 4 6 10 10 11 14 17 21 22 28 30 32 33 26 27 26 28 30 28 26 24
4 4 3 2 3 4 5 2 3 2 3 4 2 5 5 7 7 8 7 7 8 5 5 6 10 11 13 14 16 17 19 24 27 30 31 26 27 29 27 27 26 24 24 25
5 5 4 4 3 4 2 3 4 3 1 2 5 5 5 5 7 6 6 8 7 6 7 9 9 11 14 15 17 17 20 24 27 28 27 24 25 26 26 25 26 26 26 26
4 6 5 5 5 4 3 5 5 5 2 1 4 7 11 4 7 10 8 8 7 8 9 9 11 12 14 16 18 18 22 22 25 24 22 25 25 26 23 25 27 24 22 22

GFSCGP_925_spd_063.txt.gz
Wind_Speed
3 3 5 6 4 3 4 3 3 1 1 1 3 7 13 7 8 11 12 13 14 14 14 16 19 21 20 19 19 18 17 15 13 11 9 6 4 2 1 2 4 5 7 10
3 4 3 5 4 3 3 3 3 1 2 2 3 12 10 2 5 8 13 14 15 11 11 15 17 20 23 22 20 19 17 15 12 9 7 5 3 4 4 3 4 5 7 9
4 2 5 4 4 5 2 3 3 3 1 2 5 6 3 1 2 3 6 8 12 16 16 13 18 20 22 22 22 20 17 14 12 10 8 6 5 6 6 5 6 6 9 12
3 2 4 4 3 4 3 1 3 3 2 2 3 4 3 4 4 5 7 4 8 14 12 12 17 17 24 24 20 19 17 15 12 11 11 9 8 8 7 9 9 10 13 15
2 2 3 3 2 1 3 3 3 2 3 1 2 1 4 4 5 9 8 7 4 8 12 13 18 18 18 20 19 18 17 15 13 13 13 11 11 10 11 10 11 14 17 19
2 1 3 2 3 3 7 4 5 3 2 0 1 2 2 3 5 9 9 9 2 4 7 8 6 13 15 16 16 15 14 15 15 14 13 12 11 9 9 11 14 18 21 23
4 3 3 3 4 3 3 4 2 2 1 3 1 1 3 5 5 5 10 9 5 4 1 2 5 4 8 12 14 14 14 14 13 12 11 9 7 6 9 13 16 19 19 21
5 2 2 4 2 4 2 4 4 3 2 2 1 4 1 3 5 7 6 6 9 8 5 4 0 5 9 11 12 12 12 11 11 8 6 4 4 8 12 16 18 19 20 21
4 1 1 4 1 1 3 2 2 5 2 1 2 3 2 3 6 10 11 11 9 7 6 6 6 4 2 3 4 6 9 8 6 4 2 3 8 13 15 17 19 22 23 23
4 3 1 1 1 5 1 5 2 2 2 3 2 3 3 1 5 7 10 11 10 9 10 8 9 7 5 3 2 3 3 4 3 0 5 10 13 15 16 19 21 22 23 25
3 2 1 1 1 5 2 1 5 3 1 2 2 3 3 2 1 3 4 6 7 8 8 6 6 6 6 4 3 3 4 2 1 6 10 13 15 16 18 21 22 24 25 24
0 3 2 1 1 1 2 3 3 3 3 1 0 4 1 3 1 4 5 4 4 4 4 5 5 5 3 2 0 1 1 3 6 10 13 14 16 18 20 21 23 25 25 25
3 2 2 2 2 2 1 2 3 4 2 5 3 2 4 3 4 3 5 3 3 4 5 4 4 4 4 4 5 5 5 7 9 11 14 16 18 21 21 23 24 25 25 25
3 3 3 3 2 2 2 3 3 3 2 4 5 2 4 1 4 3 1 1 1 2 4 5 8 11 9 9 8 8 8 8 11 14 16 18 20 22 23 25 26 25 24 25
3 2 2 2 2 2 3 4 6 7 4 6 2 6 3 4 6 2 1 2 3 3 5 5 8 13 15 13 11 8 7 10 12 15 18 20 23 24 25 24 24 25 24 25
1 3 3 2 0 0 4 6 5 5 4 7 3 7 3 4 3 2 2 4 5 6 7 8 12 16 16 16 9 6 8 12 15 18 20 23 23 22 23 24 25 26 26 25
2 4 2 2 3 4 6 4 5 3 2 4 4 4 4 4 3 2 3 3 4 6 9 10 13 15 15 9 3 6 10 13 16 18 20 22 22 23 23 24 25 25 25 25
4 3 2 1 2 0 3 2 1 4 4 5 2 4 5 2 1 4 3 2 6 9 10 11 15 17 11 3 5 9 11 14 17 19 20 21 22 23 24 25 25 25 24 26
3 4 2 2 2 5 2 3 4 5 5 7 6 5 3 2 1 2 3 1 6 8 13 14 16 11 4 5 8 11 13 16 18 18 19 21 23 24 25 25 25 25 27 27
4 5 3 2 3 5 2 3 2 3 4 6 6 5 3 2 2 3 2 7 10 14 14 15 11 3 4 7 10 11 14 15 16 17 20 22 23 23 25 24 25 26 27 27
2 3 3 2 3 7 5 3 2 3 4 4 5 4 4 3 3 2 6 8 11 13 15 13 5 5 7 10 10 12 14 15 18 21 23 23 23 24 22 24 24 26 27 28
6 6 3 2 1 6 5 3 6 2 2 4 4 4 3 2 5 5 7 7 12 13 15 8 7 8 10 11 12 13 15 19 21 23 24 23 24 22 22 24 26 27 26 24
2 5 4 8 5 2 5 2 2 4 4 4 5 3 2 2 2 5 5 7 12 13 12 8 8 11 13 12 13 14 18 20 21 23 23 24 23 22 23 25 26 26 23 22
3 3 2 1 3 6 4 1 3 3 3 4 3 3 3 2 3 5 6 8 11 13 11 9 10 12 14 15 16 17 19 18 21 21 22 22 22 24 24 24 24 24 22 22
3 5 5 5 5 1 4 5 6 4 5 4 3 4 2 2 4 4 6 9 12 14 13 11 12 12 15 17 18 18 18 17 20 19 20 21 21 25 24 23 22 24 24 23
5 6 5 5 5 3 3 7 7 7 6 5 4 2 3 5 5 6 8 12 13 15 15 14 15 14 16 17 19 18 16 17 19 18 19 21 22 24 23 22 25 24 22 22

GFSCGP_925_spd_066.txt.gz
Wind_Speed
7 9 15 17 14 7 4 5 6 1 2 3 7 12 11 6 9 12 13 14 15 16 17 19 18 17 16 15 15 15 15 14 13 11 9 8 7 6 5 4 3 2 2 3
6 13 11 6 7 6 4 5 8 2 1 3 6 14 12 4 3 6 10 14 15 15 15 19 20 19 19 18 17 16 15 14 13 10 9 6 7 7 6 6 5 4 4 5
10 1 6 8 8 8 6 7 7 5 2 2 7 11 2 2 2 4 4 7 12 16 17 18 22 22 19 19 19 17 16 14 13 11 8 7 6 6 6 7 6 5 5 6
4 4 9 7 9 9 9 2 3 3 1 6 3 6 3 2 1 5 7 4 6 12 16 16 20 21 22 20 17 16 15 15 13 12 11 12 11 10 7 5 6 6 7 8
5 8 9 9 3 2 4 4 4 2 3 4 4 5 3 0 0 9 11 8 1 6 13 14 18 18 16 17 16 15 14 15 14 13 13 12 12 10 8 7 7 8 10 11
5 2 2 3 7 4 13 6 4 2 2 5 3 4 4 2 7 10 10 9 7 3 7 10 10 10 11 12 13 13 14 15 15 14 13 12 11 9 8 7 9 10 13 14
5 4 3 3 7 6 3 4 3 5 4 2 2 4 4 4 8 7 6 8 9 8 6 7 9 9 10 11 12 12 13 14 13 13 11 9 7 6 7 8 10 13 15 16
7 6 2 3 2 1 5 4 5 5 4 2 3 5 4 5 6 6 7 7 9 9 8 6 3 4 6 8 10 12 12 10 9 8 7 5 4 4 7 9 12 14 16 19
4 4 3 5 2 2 5 6 3 0 0 3 2 3 5 7 7 8 9 9 10 9 8 8 8 7 5 2 1 4 5 5 5 5 4 4 4 7 9 11 13 16 18 20
3 5 1 3 1 7 2 5 3 3 3 4 4 4 2 10 7 6 8 10 10 9 10 9 10 8 7 5 4 2 1 3 3 2 2 4 7 9 11 13 16 19 20 21
1 2 4 3 4 4 4 4 1 2 3 4 4 3 4 8 5 6 6 7 7 8 8 8 9 8 6 5 3 2 1 1 2 3 5 7 10 11 14 16 18 20 22 23
2 2 3 2 3 1 1 1 5 4 4 1 3 2 3 6 5 4 6 5 5 6 6 7 8 8 8 6 4 3 3 3 4 6 8 10 12 14 16 18 20 22 24 25
3 2 4 5 4 3 4 4 2 2 0 7 4 2 5 5 5 5 6 5 5 4 4 4 7 9 9 10 8 7 7 6 6 7 9 12 14 16 18 21 22 23 25 26
1 2 3 1 4 2 4 7 8 8 5 4 9 5 7 8 6 7 6 5 3 1 2 4 7 11 13 12 11 10 9 7 7 8 11 14 16 18 20 22 23 24 25 27
2 3 2 0 1 3 4 6 10 13 12 7 5 4 2 7 8 8 5 4 3 3 5 7 10 13 15 14 14 11 8 6 7 10 13 16 18 19 20 22 24 25 26 27
1 2 2 3 2 3 7 10 11 11 9 11 12 15 7 5 8 8 5 2 4 5 8 10 12 15 15 15 13 6 5 6 9 12 15 17 19 20 21 23 25 26 26 26
3 4 3 1 0 5 9 9 12 5 6 7 7 2 8 7 7 5 2 3 3 7 10 11 12 14 16 13 6 5 7 9 12 15 17 18 19 21 23 24 25 26 26 25
5 3 0 1 2 4 4 3 3 8 5 11 5 1 4 4 4 4 3 1 5 8 10 11 14 15 12 5 5 7 9 11 14 16 18 19 20 23 24 25 26 26 25 25
4 2 2 2 3 6 4 4 4 4 2 10 6 6 7 6 4 6 5 3 5 8 12 13 14 12 6 5 7 9 12 13 15 17 18 19 21 24 25 26 26 25 26 27
4 3 3 3 2 4 4 4 2 2 5 5 8 10 10 6 5 4 2 6 8 11 11 13 11 7 6 7 9 11 13 14 16 17 18 20 22 24 25 25 24 24 26 27
4 2 6 4 3 6 4 7 3 3 2 7 7 8 7 5 3 3 5 7 9 10 10 11 8 8 9 9 10 12 14 15 16 17 19 21 23 24 23 22 24 25 26 25
5 6 4 3 4 6 9 5 5 3 3 6 6 6 5 2 1 2 4 5 9 11 12 10 10 11 10 10 10 13 15 16 16 16 20 22 23 23 21 23 25 26 24 26
4 3 2 7 4 2 11 1 1 3 5 7 6 5 4 2 1 3 5 7 9 11 12 11 11 13 13 11 11 15 16 16 16 18 21 23 23 21 22 24 25 24 23 22
6 5 3 2 4 9 7 7 5 5 5 6 5 6 4 2 1 3 4 6 9 11 13 12 13 14 14 12 13 14 15 15 16 19 22 22 23 23 23 22 21 23 23 22
1 9 5 6 7 2 8 11 8 7 7 8 7 6 4 2 2 4 5 8 9 11 12 13 13 14 15 14 14 14 13 14 16 19 21 21 21 21 24 23 22 23 24 23
6 6 5 4 2 2 2 7 11 11 10 8 7 6 5 5 5 6 8 10 11 12 13 13 14 14 15 14 14 14 12 12 15 19 20 21 20 21 22 22 25 23 21 22

GFSCGP_925_spd_069.txt.gz
Wind_Speed
14 12 15 19 16 16 6 10 13 3 3 4 12 13 11 8 10 9 11 12 12 13 14 16 16 16 15 14 13 13 13 12 11 9 8 7 7 7 6 5 5 4 3 3
9 14 16 14 17 13 11 11 11 5 3 2 14 20 15 5 4 5 8 11 13 13 14 17 18 18 16 15 13 13 13 12 11 9 9 7 7 7 7 7 7 6 6 6
14 7 3 7 9 12 12 12 9 7 4 6 14 15 16 7 4 2 2 5 10 12 14 15 19 18 16 15 14 14 13 13 12 10 8 7 6 4 6 8 9 8 8 7
15 7 6 9 14 12 14 6 4 6 4 7 5 8 8 8 5 2 6 6 3 7 11 13 16 17 17 15 13 13 13 13 13 12 11 11 11 12 10 5 7 9 10 10
6 8 10 10 3 10 4 6 5 5 7 6 12 5 1 5 5 5 8 8 6 2 8 12 15 16 15 14 13 13 13 13 13 13 13 12 14 13 11 10 10 11 11 12
10 6 3 3 4 5 9 8 6 4 5 8 11 7 3 3 6 5 6 9 7 4 5 9 11 12 12 11 12 11 14 14 14 14 14 13 14 14 14 13 12 12 12 13
10 6 5 8 9 5 7 7 5 6 5 5 3 4 5 6 5 5 6 9 9 8 6 6 8 7 7 9 11 12 12 13 13 14 14 14 13 13 13 12 12 13 14 15
10 7 8 3 3 4 10 7 7 6 6 1 5 6 5 7 6 8 8 9 10 10 8 6 4 4 5 7 8 10 10 11 12 11 11 10 9 9 9 10 11 13 15 17
8 6 5 4 1 4 6 6 4 7 7 8 8 7 7 7 7 8 9 9 9 9 10 10 10 9 7 6 4 2 4 5 5 7 8 8 8 9 10 11 13 14 16 18
3 5 1 3 2 3 4 2 3 4 4 7 6 4 3 11 9 9 9 10 9 9 9 9 10 10 9 8 6 5 3 1 3 4 5 6 8 10 11 13 15 17 19 20
3 2 5 4 7 4 5 5 4 4 3 5 6 4 7 10 10 8 8 8 8 8 7 7 8 7 6 5 4 3 2 3 4 5 6 8 10 12 13 15 17 19 21 22
3 4 5 4 3 2 4 4 6 5 5 4 3 1 1 9 7 7 8 7 6 6 5 5 4 4 4 5 6 6 7 7 6 7 9 11 12 13 16 18 20 21 23 23
1 4 5 5 4 3 5 8 7 3 2 9 6 2 5 6 7 7 8 7 6 5 3 2 4 7 9 10 10 10 10 9 9 10 11 12 14 16 18 20 21 22 23 25
4 2 5 4 5 3 5 8 9 10 6 8 9 5 9 8 8 8 6 6 6 3 1 3 6 9 11 12 13 13 12 12 9 10 12 14 16 18 19 20 21 22 24 25
3 3 2 2 2 2 4 5 9 13 13 10 8 5 5 4 7 7 7 6 5 4 2 5 7 11 13 14 14 15 12 8 9 11 14 16 18 19 20 21 22 23 24 25
1 1 1 3 1 4 7 9 10 11 13 13 12 14 8 4 2 5 6 6 6 4 5 8 9 12 13 14 14 12 8 8 10 14 17 18 19 20 21 22 24 25 25 26
3 2 2 1 0 5 10 11 13 9 7 8 9 4 4 4 5 6 5 5 3 2 6 8 10 12 13 12 9 9 10 11 14 16 17 19 19 21 22 23 25 26 27 27
2 2 0 2 3 4 4 5 4 7 4 8 3 2 2 2 4 3 3 3 1 5 7 8 10 12 11 9 8 9 11 14 15 16 18 19 20 22 23 24 26 26 26 25
3 2 2 3 5 7 7 3 3 4 1 7 8 4 5 4 3 8 5 4 3 4 7 9 11 11 10 9 9 11 14 15 15 17 18 20 21 23 24 25 26 26 24 25
1 3 4 2 2 3 4 5 3 2 4 2 7 8 8 6 5 7 5 3 4 6 8 10 11 11 10 10 10 13 15 16 17 17 19 20 21 23 25 26 25 23 24 25
4 3 8 6 5 5 9 8 5 4 3 6 4 5 6 6 3 5 2 3 5 7 10 11 12 12 12 12 13 14 15 17 17 17 19 20 22 23 24 24 23 24 24 24
6 6 4 5 5 5 10 7 4 4 3 4 3 4 4 3 3 3 2 4 6 8 11 12 13 13 14 14 14 15 17 17 16 17 19 21 22 23 23 22 24 23 23 22
4 4 1 6 2 2 11 4 5 1 2 4 5 5 4 5 3 1 2 4 6 8 10 12 13 15 15 15 14 16 17 16 16 18 20 21 22 23 22 22 25 23 21 22
5 2 3 2 3 8 6 9 5 4 2 3 4 7 5 5 3 1 3 4 7 9 11 12 14 15 17 16 16 16 15 15 16 18 20 21 22 22 21 22 21 21 22 22
3 8 5 8 11 5 10 9 8 6 5 7 7 7 6 4 2 3 5 7 9 12 13 14 15 16 18 17 16 15 14 14 16 18 20 20 20 21 22 22 22 20 22 23
7 7 5 5 5 5 4 4 9 9 9 9 8 7 5 4 2 4 6 10 12 14 16 16 16 17 18 17 16 14 13 13 15 18 19 20 20 19 21 23 23 22 22 23

GFSCGP_925_spd_072.txt.gz
Wind_Speed
14 10 13 16 17 16 14 5 5 5 5 5 8 3 10 9 9 7 5 7 6 10 12 16 18 14 15 16 18 17 15 14 15 13 12 10 9 8 7 7 5 6 4 3
8 14 15 17 16 17 13 8 10 10 6 4 4 6 12 14 0 4 5 6 6 5 9 17 19 16 15 14 16 18 16 16 15 12 11 10 12 12 11 10 9 9 8 6
12 12 18 15 13 13 10 6 4 8 6 3 3 5 9 3 7 4 1 3 6 8 8 12 18 18 17 14 14 17 17 14 13 11 10 9 4 3 5 8 12 12 10 10
13 5 11 5 8 5 8 10 2 7 5 5 7 4 4 11 8 6 8 7 7 7 6 12 16 21 18 15 14 11 13 16 14 12 10 7 8 9 11 13 11 10 9 10
4 6 2 7 5 8 2 5 5 6 7 6 8 2 2 9 8 8 8 6 5 8 7 9 13 21 18 14 12 13 9 11 14 13 13 12 10 12 13 11 7 8 10 12
2 4 4 1 6 6 9 5 4 1 2 4 12 8 0 3 5 7 8 6 5 4 5 7 17 18 13 15 11 10 9 7 9 9 10 11 14 14 13 13 9 10 10 9
6 5 2 7 5 3 6 7 3 3 3 3 5 5 5 7 7 7 8 7 6 5 7 9 9 12 11 11 7 4 6 9 8 10 13 14 12 12 11 11 11 9 9 11
6 5 6 4 1 4 7 3 2 3 3 4 2 4 4 8 8 8 8 7 7 7 6 8 8 7 6 6 7 9 10 10 11 12 6 5 7 8 7 8 9 10 12 14
5 4 4 5 3 4 5 3 2 3 5 2 5 5 4 8 8 9 9 8 7 8 8 8 11 13 14 14 12 9 6 4 3 4 5 6 7 6 8 8 10 13 15 16
5 5 1 2 2 1 4 3 1 2 2 4 6 6 6 9 8 9 9 8 7 7 8 8 11 13 13 10 7 6 4 5 2 2 3 5 6 8 10 10 11 14 18 20
6 2 3 3 5 3 3 2 3 1 2 1 4 3 5 9 9 9 9 8 7 7 7 7 10 11 8 7 4 3 4 4 4 3 5 7 9 10 11 14 16 17 18 20
2 4 3 3 3 4 4 3 7 2 2 2 2 1 5 9 8 9 9 7 7 7 7 6 7 6 7 7 6 4 4 4 5 4 7 9 11 12 13 15 17 19 21 21
6 3 4 3 1 1 3 3 3 4 3 3 1 2 4 6 6 6 9 8 7 7 6 5 6 9 10 10 10 8 6 6 6 7 7 11 13 14 16 17 19 20 21 23
3 3 3 2 4 2 4 4 5 4 2 3 2 6 6 7 6 6 6 8 8 7 5 5 6 8 10 10 11 12 12 10 7 7 7 11 14 14 16 19 20 20 22 24
3 3 5 6 4 4 4 5 7 7 6 3 3 4 9 9 10 10 9 8 7 8 6 7 5 6 8 10 11 11 10 9 9 8 11 14 14 17 19 19 21 22 24 25
2 2 2 3 4 1 3 5 6 6 6 6 6 5 7 7 7 6 8 7 5 2 8 6 5 7 8 10 11 10 12 9 9 11 13 16 17 18 18 20 21 23 25 26
3 1 1 2 1 4 6 2 8 5 4 1 5 3 5 4 4 5 4 6 4 7 6 5 4 6 9 10 10 9 9 11 12 14 14 17 18 18 20 21 23 24 26 25
2 2 1 2 3 2 2 4 6 2 3 5 5 5 2 3 3 4 7 6 8 7 5 5 7 9 10 9 8 8 10 12 15 15 16 17 17 20 22 23 24 26 25 26
4 2 2 1 3 2 3 3 1 2 2 6 4 7 5 6 4 2 9 8 8 5 3 4 7 10 10 9 8 6 10 13 15 16 15 17 20 22 23 25 25 26 27 21
4 3 1 2 1 4 2 4 1 3 2 2 4 6 6 7 2 3 7 6 6 5 5 6 8 11 12 11 11 10 11 14 17 13 16 18 20 23 25 25 25 29 20 23
2 1 4 4 3 6 5 6 2 2 5 4 3 4 6 4 3 6 6 6 5 4 6 7 9 10 11 13 12 11 11 14 14 15 17 20 21 24 22 25 25 18 23 24
5 4 3 2 2 6 8 4 4 4 3 5 2 5 9 9 7 6 5 4 4 4 5 8 9 12 14 14 15 13 11 13 14 16 18 21 22 21 23 22 18 23 24 22
2 2 2 6 4 4 8 2 3 3 4 3 5 5 7 8 6 5 3 3 3 3 5 8 9 11 13 14 15 15 15 14 14 16 19 21 21 21 19 17 23 24 21 20
3 3 1 3 3 7 7 5 7 3 3 6 7 7 6 6 6 4 3 2 3 5 6 9 10 10 13 15 16 15 15 12 13 16 20 21 21 20 17 19 22 21 20 20
2 6 6 5 6 4 5 7 8 8 5 7 7 6 5 7 5 4 2 3 5 7 10 11 13 13 13 14 17 16 14 12 13 16 19 20 19 19 18 21 21 21 19 23
6 6 5 4 1 4 3 7 7 8 6 7 6 6 6 4 4 4 2 4 8 9 13 14 14 12 14 16 16 15 13 12 12 16 18 19 20 17 20 23 22 20 20 23

GFSCGP_925_spd_075.txt.gz
Wind_Speed
4 3 7 5 6 6 7 8 10 3 6 5 5 6 8 8 5 7 6 4 2 7 7 25 31 33 32 28 23 20 16 21 21 18 18 14 12 12 11 10 9 8 7 6
2 7 8 10 14 16 13 6 4 4 6 5 7 9 9 7 3 6 7 6 0 3 7 15 28 31 32 28 23 22 19 19 18 17 15 12 15 16 16 15 14 13 13 11
5 7 11 9 15 17 15 8 6 7 3 3 5 6 6 2 5 6 5 5 5 4 8 7 18 28 28 27 26 24 21 21 21 17 15 11 9 7 12 15 16 16 14 13
6 5 13 14 11 10 11 5 8 13 8 5 6 4 5 7 6 5 6 7 5 5 1 7 12 21 24 20 22 23 23 24 21 18 17 15 12 10 10 11 14 15 14 14
4 5 3 5 3 2 4 5 9 8 6 5 3 3 6 7 5 4 5 6 5 5 2 8 12 24 23 20 20 17 21 22 21 20 20 18 13 11 10 8 9 12 13 14
2 3 2 3 1 4 7 7 8 5 4 1 8 6 3 4 6 4 3 3 5 7 5 8 20 24 21 18 19 16 12 9 13 17 16 15 13 13 14 13 7 7 10 9
6 2 3 3 6 5 6 6 3 2 1 5 4 5 5 5 6 8 8 5 6 7 8 8 8 11 14 14 13 10 7 5 1 2 7 11 13 12 13 9 7 4 4 6
3 1 4 2 4 5 4 6 5 6 5 4 3 4 4 5 7 8 8 7 7 8 7 8 9 11 11 9 5 2 1 3 6 7 2 1 4 5 7 7 7 6 9 12
1 1 2 5 3 4 4 2 4 3 1 4 3 3 4 5 7 7 8 8 7 8 8 8 14 19 18 16 15 14 10 7 5 4 2 2 3 1 3 4 6 10 12 13
3 3 2 2 2 2 2 3 3 2 2 3 2 4 4 8 7 7 7 8 7 7 8 8 12 15 13 11 9 7 6 6 4 3 4 4 6 7 7 5 8 11 14 16
2 3 3 3 2 5 1 1 1 3 4 4 1 4 6 10 11 11 9 8 8 8 7 7 10 11 10 8 6 5 3 2 3 4 5 5 8 9 10 11 11 11 13 17
5 2 2 2 0 0 1 3 5 4 4 1 4 5 5 11 11 12 9 8 7 8 8 7 9 8 9 8 4 1 2 5 7 7 5 3 4 7 10 12 12 16 20 21
4 2 2 5 5 4 1 3 3 3 3 1 4 4 3 8 8 8 10 8 8 8 7 6 9 10 10 10 9 8 7 6 2 2 2 4 7 10 11 11 16 20 21 24
2 2 4 5 3 3 3 4 4 5 4 2 4 5 4 6 9 8 8 9 9 8 8 6 6 8 8 7 7 8 7 7 4 3 3 8 9 8 13 17 19 20 20 22
3 1 2 1 2 2 1 4 5 5 5 4 3 5 8 9 10 11 11 9 9 9 8 6 5 5 6 5 5 6 8 6 5 5 7 7 10 13 17 16 17 19 21 24
1 1 2 1 2 0 2 4 5 4 4 4 2 3 1 3 6 6 8 9 8 8 7 7 6 6 5 4 5 5 5 6 8 9 11 11 14 16 13 16 20 22 23 25
3 2 2 1 2 2 5 5 5 4 2 5 3 4 4 4 7 6 7 7 10 8 7 6 5 6 5 4 4 4 3 7 11 13 12 14 15 12 17 21 22 24 25 25
1 2 2 2 3 1 3 1 2 6 4 6 7 6 5 5 5 7 4 8 8 7 6 6 7 8 7 6 5 4 4 6 10 13 15 14 12 19 22 23 25 26 25 26
3 2 2 3 2 5 3 3 1 2 2 4 7 7 6 6 5 6 4 6 7 7 9 9 8 8 9 8 5 3 5 8 11 15 14 12 16 20 24 25 27 25 25 18
2 4 4 2 3 6 4 2 2 3 3 2 7 8 7 6 3 4 5 6 8 13 11 8 6 5 6 8 9 7 9 10 12 14 11 14 19 22 24 25 23 23 14 23
2 2 4 2 2 7 4 4 2 5 6 3 5 7 8 5 4 6 7 7 11 10 7 4 3 5 8 10 12 14 16 14 13 10 13 16 20 22 21 23 20 16 25 26
6 5 4 2 1 6 6 3 6 5 2 4 4 3 6 9 7 8 7 7 8 6 3 1 2 6 8 10 11 12 13 14 12 12 13 16 20 20 22 16 16 25 24 25
1 6 4 7 6 5 7 4 3 4 4 3 6 5 8 9 7 7 6 6 6 5 2 2 6 8 8 9 10 13 16 16 12 10 13 17 19 21 16 15 23 27 24 20
2 4 3 3 4 6 9 3 5 4 4 4 6 8 7 8 7 7 6 4 3 1 3 5 7 9 12 12 9 12 14 12 10 12 14 17 19 18 15 18 26 24 20 18
5 4 4 4 6 0 5 7 8 7 7 8 6 6 7 8 7 6 5 3 1 3 5 8 11 12 12 10 12 13 13 12 11 11 15 18 19 18 15 20 24 21 20 19
5 7 5 6 7 5 4 7 9 8 7 9 8 6 6 8 7 6 3 1 2 4 9 11 8 10 13 14 16 16 13 11 11 13 16 18 17 14 18 23 21 18 18 21